GFSGBSN_sfc_wetblb_000.txt.gz
Wetbulb
57.16 57.05 57.38 57.28 57.32 57.21 56.92 56.97 57.18 57.21 57.08 56.97 57.13 57.75 57.77 57.64 57.59 58.17 58.48 58.32 57.66 57.54 57.64 57.77 57.00 56.28 59.58 57.87 56.28 67.53 72.93 71.38 68.21 65.73 60.86 63.81 62.49 59.75 57.31 58.34 59.61 62.31 65.46 67.24 67.82 66.79 66.36
56.22 56.33 56.73 56.88 56.72 56.37 56.44 56.52 56.58 56.70 56.59 56.75 56.90 57.36 57.39 57.36 57.58 57.79 57.84 57.46 56.70 57.02 56.83 57.04 56.13 56.02 60.62 53.50 62.66 68.50 69.03 63.19 65.66 63.29 60.56 65.20 60.47 60.57 58.49 58.27 59.13 64.89 66.09 66.20 66.07 64.45 64.67
55.94 55.88 55.87 56.18 56.19 55.91 55.83 55.88 55.98 56.12 56.11 56.21 56.74 56.76 56.86 57.01 56.88 56.80 56.86 56.38 56.79 56.45 56.06 55.99 56.05 60.17 58.64 55.77 66.94 67.05 69.18 61.62 62.46 61.82 61.15 64.26 62.60 59.53 59.60 60.70 64.99 66.57 63.94 65.71 64.84 65.80 63.35
55.55 55.29 55.20 55.71 55.74 55.46 55.26 55.36 55.48 55.48 55.79 56.02 56.27 56.27 56.37 56.50 56.19 56.11 55.87 55.64 57.63 56.09 55.74 56.50 58.28 62.66 57.10 62.27 68.25 63.78 63.30 62.23 63.47 65.19 64.83 64.98 62.70 59.71 59.06 63.62 64.62 62.09 62.38 59.11 63.80 65.36 64.52
55.24 54.97 54.87 55.29 55.30 55.01 54.89 54.90 55.08 55.52 55.71 55.75 55.84 55.70 55.84 55.98 55.97 55.52 54.85 55.54 56.88 57.16 57.46 59.07 63.07 62.48 58.81 65.64 63.92 63.81 63.08 60.45 62.46 64.54 64.72 61.70 61.04 59.06 60.89 58.20 57.42 60.05 55.48 56.66 60.36 65.82 64.30
54.83 54.66 54.52 55.00 54.87 54.75 55.18 55.46 55.39 55.39 55.53 55.53 55.49 55.21 55.16 55.18 55.02 54.38 53.90 55.56 59.69 60.23 61.16 62.90 64.09 60.44 61.25 58.92 61.94 61.99 63.24 61.62 61.76 61.96 60.25 59.73 58.97 56.41 56.97 56.32 51.30 53.70 54.75 56.73 57.08 62.44 63.78
54.26 54.25 54.25 54.55 54.64 54.70 55.01 55.11 55.27 55.35 55.31 55.29 55.12 54.79 54.69 54.61 54.06 53.67 55.41 61.76 62.05 60.70 62.05 60.08 60.26 58.48 58.81 61.45 63.61 60.94 62.47 61.04 61.24 59.03 55.40 58.55 55.90 53.38 54.71 56.30 55.94 55.14 54.50 55.59 58.05 61.48 61.40
53.94 53.71 53.81 54.20 54.33 54.91 54.99 54.88 54.96 54.90 55.08 54.94 54.83 54.55 54.32 53.99 53.41 53.02 57.79 62.02 62.03 62.33 57.38 60.73 60.71 60.65 61.79 61.53 57.39 59.84 63.46 58.13 57.25 53.83 55.89 54.66 52.86 55.77 56.55 55.96 54.86 54.40 53.47 54.07 58.65 61.48 61.87
53.82 53.37 53.35 54.11 54.55 54.62 54.68 54.72 54.49 54.55 54.55 54.43 54.38 54.10 53.87 53.12 52.66 56.42 59.05 57.90 64.54 63.49 57.56 58.37 59.99 59.51 59.79 60.68 56.46 56.98 60.79 58.65 55.64 53.96 53.92 51.94 53.65 57.04 55.54 54.81 54.18 54.78 53.72 54.17 55.65 61.24 62.60
53.71 53.99 54.01 53.98 54.34 54.27 54.37 54.53 54.45 54.45 54.24 54.18 54.20 54.06 53.30 51.71 53.96 57.25 56.50 64.59 63.13 64.42 54.07 54.49 55.32 58.20 59.74 58.49 54.98 59.49 61.04 58.22 55.48 53.40 54.19 55.27 56.36 54.80 54.61 54.15 55.72 53.37 56.81 55.83 56.01 58.97 53.99
53.90 53.81 53.93 53.93 54.21 54.19 54.37 54.45 54.30 54.24 54.10 54.02 54.14 53.77 52.26 51.44 55.20 54.59 60.58 60.76 63.98 61.88 45.34 54.31 56.55 61.91 59.71 56.30 56.79 57.33 61.72 58.65 54.25 54.94 55.35 54.20 54.15 54.24 53.84 54.61 56.64 55.08 59.13 58.31 58.35 58.69 58.18
53.79 53.63 52.64 53.49 54.05 54.29 54.20 53.99 53.97 53.83 53.75 53.65 53.50 53.10 51.85 56.00 56.42 57.84 58.89 61.61 63.63 52.02 44.16 52.01 54.90 55.14 55.01 56.14 56.20 58.17 58.01 59.62 58.22 55.78 56.05 56.05 57.84 57.05 56.27 56.34 56.62 60.49 59.98 59.26 59.16 56.44 51.41
53.58 52.68 52.71 52.91 53.75 54.12 54.02 53.95 53.87 53.42 53.17 53.09 52.20 51.45 51.01 55.05 54.01 60.11 60.54 63.24 53.68 47.08 53.76 50.90 51.46 54.42 54.24 53.21 54.09 55.20 55.19 54.68 52.92 51.54 52.38 54.51 54.79 56.88 57.89 55.62 58.18 58.13 55.39 49.62 48.45 48.44 47.91
53.62 52.84 53.70 53.04 53.86 54.16 54.00 54.04 53.85 53.22 52.97 52.23 50.65 49.78 54.44 55.84 59.70 57.65 56.24 56.27 48.85 50.84 51.43 55.06 52.54 53.27 51.91 53.67 53.34 54.53 54.17 53.02 55.50 55.20 53.22 51.45 49.79 54.91 57.35 56.29 54.69 55.02 54.00 49.82 44.46 45.61 47.95
53.44 53.67 53.68 53.71 53.90 54.18 53.97 53.85 53.48 53.01 52.66 51.79 49.90 57.44 56.72 59.88 58.45 59.71 55.15 50.83 51.24 52.13 55.21 53.82 52.73 50.48 51.46 52.72 52.99 53.54 54.00 53.83 55.04 55.62 52.44 51.64 51.46 56.51 57.00 57.68 57.53 54.69 52.35 55.13 50.20 51.24 48.03
53.50 53.48 53.49 53.43 53.79 53.79 53.93 53.89 53.42 52.85 52.38 51.32 53.06 54.08 54.83 61.19 61.96 56.44 53.92 48.97 53.47 55.82 56.38 55.00 51.68 52.00 49.98 51.46 51.36 52.41 53.29 55.48 54.65 56.16 57.39 54.85 51.32 55.46 55.86 57.52 56.85 56.85 57.51 51.16 51.78 46.12 45.11
53.29 53.49 53.09 53.64 53.41 53.67 53.79 54.04 53.48 52.81 52.00 51.07 52.98 49.62 59.13 62.00 61.47 52.47 50.91 53.22 54.69 56.33 56.10 54.43 53.28 52.76 52.21 51.46 52.39 52.25 52.98 54.92 55.96 55.30 56.91 55.86 54.17 53.98 56.20 54.79 53.80 54.39 53.88 55.05 54.35 52.39 47.71
52.73 53.28 53.67 53.67 53.38 53.55 53.90 53.87 53.22 52.05 51.09 51.76 53.96 47.69 60.54 60.94 53.06 53.60 52.51 55.19 53.26 54.87 55.88 54.80 55.46 54.87 53.69 53.24 52.39 52.66 52.60 54.75 56.47 56.63 53.39 56.10 54.37 51.76 52.78 56.78 57.86 57.04 55.30 55.65 51.31 51.75 51.96
52.72 52.99 53.51 53.65 53.10 53.73 53.90 53.65 52.81 51.77 51.24 51.75 52.24 51.95 61.63 60.07 50.96 53.38 56.12 54.97 55.26 53.85 54.24 53.80 54.25 55.31 55.53 54.63 52.79 53.63 54.32 56.58 56.57 56.20 55.60 56.63 53.06 49.74 51.61 54.73 56.42 55.14 56.42 56.61 56.16 55.39 52.13
52.03 52.39 52.76 53.69 53.69 53.67 53.67 53.34 52.42 51.73 51.06 51.66 53.67 51.16 57.09 58.02 58.23 54.77 54.15 53.76 52.99 54.37 54.21 54.32 54.81 56.36 55.47 54.87 56.82 54.98 55.26 57.35 58.65 58.07 59.62 60.54 54.78 52.86 48.77 52.00 54.38 53.52 54.79 56.19 55.25 52.29 52.62
51.74 52.22 52.39 52.79 53.78 53.55 53.57 53.40 52.62 51.96 50.81 52.23 56.17 53.27 52.77 52.88 54.07 54.20 53.65 53.28 52.57 52.08 54.76 55.60 54.85 54.32 55.03 54.17 54.65 54.43 56.34 57.62 58.58 58.81 59.07 58.03 54.55 55.26 54.47 54.42 54.58 54.17 54.49 55.03 54.54 55.04 52.68
51.51 51.86 52.45 52.52 52.83 53.53 53.50 53.67 52.95 52.22 50.37 53.57 51.13 50.96 55.42 55.87 52.17 52.12 48.85 52.54 51.04 52.12 53.44 52.62 53.77 55.09 56.18 55.20 56.53 54.24 55.90 57.34 57.00 59.15 59.12 59.78 55.76 56.85 53.33 54.59 54.25 52.66 54.27 55.08 55.31 55.23 55.50
50.98 51.17 51.70 52.22 52.60 53.10 53.42 53.77 53.32 52.45 50.92 52.26 52.93 54.25 51.56 47.26 51.74 51.85 52.10 51.85 51.17 53.22 54.38 54.97 55.16 56.20 54.64 56.39 57.18 58.54 58.97 59.40 58.62 58.88 58.70 58.72 57.21 55.92 51.72 54.65 54.11 51.62 54.58 55.26 55.94 57.04 56.17
50.09 50.85 50.90 51.17 51.93 52.49 53.18 53.45 53.61 53.03 51.38 51.15 51.47 51.09 49.67 47.66 52.40 50.09 49.61 49.82 50.60 51.00 52.51 54.21 56.12 56.49 56.85 59.93 59.47 58.35 58.14 58.28 58.34 58.79 59.43 59.04 58.63 56.70 52.54 54.54 47.03 54.76 58.52 57.73 56.32 56.95 57.33
49.56 49.98 50.52 50.62 51.00 52.05 52.49 53.16 53.43 53.42 52.54 51.40 51.95 50.94 49.95 47.61 47.48 46.61 46.84 48.26 50.01 52.01 51.85 52.79 55.34 57.81 58.92 58.07 56.46 54.90 54.61 55.39 56.37 57.37 58.17 60.03 58.61 54.03 51.51 51.20 53.39 54.15 55.79 55.61 55.26 55.33 58.65
49.43 49.58 49.83 50.13 50.64 50.96 52.16 52.93 53.06 53.01 52.76 52.84 50.61 52.14 51.15 47.42 46.74 47.53 46.60 47.71 48.48 50.39 50.65 52.93 57.40 57.30 59.24 57.04 55.10 51.59 48.80 51.88 52.01 54.61 57.88 58.34 59.89 55.20 53.06 48.60 46.88 54.85 57.86 59.93 59.08 52.23 58.35
49.34 49.43 49.28 49.45 49.94 50.37 51.36 52.16 52.85 52.71 52.66 52.02 51.54 51.15 50.39 47.07 50.20 49.75 48.71 47.12 49.92 49.69 48.86 52.63 50.93 55.79 58.21 55.05 52.03 51.08 50.52 54.59 50.81 51.40 53.36 54.38 55.28 51.89 51.68 50.43 52.41 58.31 58.45 59.51 50.77 53.24 59.33
49.51 49.41 49.23 49.32 49.36 50.07 50.37 51.76 52.55 52.83 52.26 51.36 51.81 52.28 47.80 46.29 48.41 48.40 48.70 48.35 49.63 49.94 47.04 50.47 50.91 54.59 54.80 52.26 51.87 52.45 51.87 54.24 52.91 54.72 54.18 53.88 52.59 51.68 52.73 50.59 48.45 59.12 57.40 54.56 60.10 61.41 60.57
49.52 49.37 49.58 49.52 49.32 49.81 50.20 51.04 51.84 52.28 52.22 51.40 49.83 52.62 52.12 47.31 47.93 50.83 50.81 51.34 50.80 50.29 48.90 50.00 48.98 51.81 51.79 51.33 54.41 54.34 52.05 54.95 53.42 50.14 55.60 51.81 55.74 54.04 54.59 54.93 59.99 59.96 59.44 61.30 61.89 61.24 62.38

GFSGBSN_sfc_wetblb_003.txt.gz
Wetbulb
57.10 57.37 57.13 57.35 57.44 57.21 56.67 56.82 56.93 57.17 57.19 56.86 57.00 57.29 57.62 57.59 57.56 57.79 58.26 58.05 57.58 58.18 58.44 58.54 58.73 57.84 59.90 59.63 59.14 67.71 72.04 72.11 68.63 67.22 62.76 60.98 62.74 63.05 59.06 59.97 59.69 61.98 62.79 63.83 64.07 64.76 64.15
56.66 56.47 56.50 56.68 56.57 56.23 56.16 56.24 56.41 56.40 56.65 56.53 56.74 57.02 57.15 57.13 57.22 57.65 57.72 57.21 56.87 58.44 58.43 58.33 57.90 56.85 61.46 56.60 63.61 67.17 66.47 62.39 62.24 64.03 61.51 62.66 64.67 63.57 60.92 59.50 60.60 63.42 63.62 63.14 64.07 63.50 64.15
55.99 55.89 55.92 56.26 56.17 55.97 55.53 55.69 55.83 56.01 56.05 56.39 56.64 56.68 56.64 56.78 56.83 56.76 56.62 56.18 57.00 58.73 57.81 57.53 57.40 60.75 60.15 58.25 65.62 66.81 66.99 60.85 62.67 62.67 60.37 64.84 64.99 61.27 61.72 59.20 63.05 63.37 61.20 62.35 62.92 63.70 62.31
55.56 55.57 55.35 55.67 55.78 55.40 55.26 55.18 55.39 55.90 56.17 56.39 56.39 56.51 56.49 56.51 56.25 56.10 56.05 55.40 57.10 57.88 57.09 57.28 58.08 63.25 61.10 62.68 67.22 65.03 66.92 60.96 63.84 63.59 63.05 67.00 64.59 61.83 61.41 63.01 63.29 60.56 60.82 58.15 62.47 63.01 64.14
55.19 55.13 55.20 55.39 55.56 55.39 55.44 55.27 55.34 55.66 55.67 55.79 55.79 55.81 56.02 55.81 55.77 55.42 54.87 54.85 58.65 57.92 58.33 59.10 63.45 65.37 61.65 66.80 64.64 64.20 64.33 59.66 61.06 63.01 65.96 64.38 62.91 60.50 60.72 58.68 59.05 59.33 55.92 56.96 59.34 63.01 63.45
54.83 54.89 54.81 54.80 55.04 55.52 55.60 55.39 55.47 55.51 55.41 55.49 55.37 55.32 55.32 55.20 55.03 54.44 53.94 54.91 59.93 59.48 60.88 64.35 64.51 61.81 63.26 59.40 63.15 62.29 63.24 61.76 59.79 61.77 62.54 60.55 59.77 58.00 58.72 57.03 52.79 55.47 56.17 57.59 57.81 60.85 61.14
54.51 54.51 54.14 54.21 54.46 55.26 55.36 55.33 55.39 55.29 55.29 55.29 55.26 55.08 54.87 54.66 54.30 53.53 55.13 63.61 63.44 62.68 64.57 61.04 61.34 58.90 59.21 62.62 63.53 61.21 62.27 60.67 60.62 60.53 57.28 59.43 55.93 54.26 55.97 57.75 57.88 57.88 56.15 56.54 57.83 61.11 60.30
54.16 53.87 53.93 54.14 54.93 54.84 54.87 54.98 55.18 55.22 55.18 55.10 54.89 54.62 54.58 54.32 53.55 52.89 56.65 62.30 63.12 64.19 58.40 61.03 60.76 62.05 62.18 62.63 57.48 59.31 62.50 57.36 57.69 55.37 57.41 57.16 54.49 57.25 57.65 57.18 56.74 55.23 54.95 55.91 58.43 60.36 59.70
54.09 54.28 54.40 54.61 54.48 54.64 54.52 54.94 54.85 54.75 54.71 54.50 54.57 54.38 54.12 53.30 52.76 56.77 61.33 62.02 64.30 65.16 58.75 58.66 59.97 60.12 61.15 61.01 57.08 57.19 59.43 58.19 56.61 54.95 54.85 54.20 56.20 58.38 56.72 55.77 54.71 54.91 53.98 54.35 55.26 58.28 59.57
54.73 54.50 54.25 54.03 53.94 54.23 54.38 54.59 54.63 54.59 54.34 54.26 54.32 54.11 53.36 52.03 53.49 59.72 57.70 65.09 65.92 65.22 55.09 55.25 57.32 59.14 60.73 59.97 56.70 60.61 60.64 58.36 56.43 54.36 54.99 54.87 56.59 55.45 54.90 54.36 55.33 53.02 56.24 55.64 54.85 55.97 53.29
54.74 54.35 53.71 53.35 53.33 54.15 54.23 54.30 54.30 54.46 54.09 54.03 54.09 53.89 52.58 51.41 55.73 54.48 60.12 62.08 63.98 64.30 46.51 55.66 57.11 62.42 61.11 56.67 57.64 57.65 61.01 59.01 55.15 54.70 55.52 53.43 54.74 54.86 54.25 55.02 56.51 55.34 57.53 55.72 55.38 55.02 55.45
54.48 54.26 53.88 54.23 53.70 54.08 54.04 54.24 54.11 54.16 53.89 53.83 53.62 53.21 52.39 56.76 58.58 59.04 61.11 60.07 63.25 53.34 45.81 52.85 56.83 56.30 56.27 56.16 56.39 57.73 57.10 60.08 59.00 55.63 56.01 56.15 59.21 57.36 56.70 57.55 57.45 59.34 57.55 57.08 57.13 55.44 50.97
54.32 54.04 54.23 54.25 53.87 53.79 53.97 54.10 53.93 53.89 53.48 53.09 52.31 51.62 51.62 56.22 53.43 60.39 61.94 60.36 54.33 48.66 54.77 52.21 53.60 55.70 55.14 53.30 54.86 54.97 54.17 54.80 53.60 52.19 52.32 55.49 55.71 57.56 58.28 55.90 57.94 57.52 55.30 50.38 49.43 49.62 49.75
54.01 53.83 54.09 53.95 53.52 53.47 53.79 53.75 53.69 53.72 53.07 52.37 50.88 49.98 55.13 57.67 59.74 59.43 57.02 53.85 48.83 52.85 52.89 55.30 54.40 54.76 52.58 54.17 54.75 54.32 53.67 53.02 56.33 55.78 53.26 52.14 50.08 55.45 57.91 56.42 54.84 55.41 55.07 50.86 46.45 47.51 49.85
54.05 54.07 53.87 53.75 53.28 53.57 53.59 53.51 53.42 53.29 52.70 51.67 50.02 58.41 58.90 60.29 61.08 58.91 55.06 49.03 51.34 54.01 55.28 53.58 53.70 52.01 52.23 53.89 54.32 54.51 53.79 53.55 55.72 56.68 53.46 52.88 52.25 57.09 57.46 58.20 57.88 55.23 52.61 56.38 51.92 52.73 50.28
53.53 53.14 53.68 53.47 53.59 53.32 53.37 53.38 53.38 53.21 52.60 51.17 53.32 56.00 56.33 61.51 63.12 56.91 52.97 47.98 54.23 56.97 57.20 56.71 53.02 52.71 50.91 52.62 52.19 53.43 53.83 56.20 55.49 57.46 58.73 56.54 52.59 56.31 56.82 58.01 58.38 57.20 57.48 51.69 52.35 47.10 46.83
52.81 52.90 53.42 54.16 53.83 53.46 53.44 53.73 53.48 53.07 52.15 51.16 55.11 53.24 59.26 62.57 62.72 54.29 50.17 52.78 55.42 57.86 57.39 55.60 54.92 53.83 52.75 52.47 53.14 52.88 54.02 56.18 57.27 56.82 58.01 56.64 55.35 54.44 56.50 54.92 54.40 54.65 54.37 55.64 55.07 53.79 49.35
52.69 52.62 53.21 53.93 53.99 53.77 53.81 53.66 53.31 52.38 51.10 52.30 54.85 50.07 62.15 63.75 52.90 54.40 51.66 54.36 53.60 56.57 57.86 56.99 57.34 56.66 54.68 53.92 53.32 52.92 53.01 55.65 58.19 58.28 54.67 56.70 54.90 52.30 53.52 57.12 57.55 56.86 55.25 55.54 51.68 51.92 53.12
52.16 52.14 52.78 53.28 53.77 54.10 53.93 53.40 52.99 51.95 51.38 52.31 53.45 53.99 60.99 61.39 49.82 52.03 54.65 53.73 56.02 56.00 56.16 56.16 55.64 57.44 57.84 54.70 52.94 53.92 54.73 57.38 57.82 56.92 56.19 57.02 53.44 50.49 51.81 55.15 56.70 54.55 55.96 56.43 56.17 55.54 53.78
51.70 51.85 52.50 52.95 53.38 54.04 53.93 53.33 52.76 51.89 51.50 51.65 54.22 51.42 53.36 58.13 56.57 55.63 54.81 53.52 54.56 57.61 56.31 56.60 56.26 57.79 56.93 55.61 56.45 54.31 54.00 56.38 57.37 57.28 62.45 61.55 54.61 52.69 49.23 52.63 55.54 53.55 54.06 55.60 55.20 52.96 53.33
51.17 51.70 51.97 52.62 53.32 53.65 54.18 53.56 52.95 52.00 51.26 51.79 56.24 53.97 57.35 53.20 53.19 55.82 57.30 55.95 53.94 54.09 56.34 57.20 55.89 55.72 56.81 55.10 55.05 54.88 55.83 56.80 58.00 59.78 58.92 57.38 54.24 54.89 54.67 54.35 55.14 54.51 54.13 54.21 54.41 55.31 52.91
50.81 51.13 51.42 51.64 51.97 53.17 53.81 53.85 53.29 52.14 50.80 53.92 51.10 52.23 55.82 55.35 56.10 55.17 51.84 55.18 53.99 54.95 55.11 54.67 54.67 55.88 56.89 56.79 57.14 55.37 56.92 57.60 57.10 59.14 58.11 59.06 54.75 55.90 53.50 54.90 54.00 53.11 54.60 55.07 55.04 55.33 55.12
49.89 50.22 51.08 51.21 51.49 51.99 53.32 53.79 53.58 52.45 51.42 52.27 53.73 55.63 53.32 52.15 54.28 53.62 53.62 54.65 54.81 55.47 56.04 56.82 56.93 56.96 56.11 58.09 59.75 60.46 60.63 61.01 60.79 59.76 58.50 58.83 56.24 55.17 52.08 54.91 54.27 51.40 54.00 54.71 55.60 57.00 56.48
49.62 49.77 50.04 50.90 50.99 51.34 52.28 53.44 53.77 53.25 51.87 53.12 52.13 52.16 51.82 49.81 51.96 53.30 53.40 53.42 53.85 54.18 54.70 56.11 56.71 57.36 59.26 61.97 62.09 60.79 59.85 59.44 59.16 59.44 60.99 59.47 59.14 56.67 52.88 54.35 47.56 54.97 58.08 57.56 56.11 57.09 58.24
50.00 49.45 49.58 50.00 50.41 50.83 51.40 52.75 53.61 53.54 52.80 52.89 54.60 49.32 51.37 49.46 50.14 50.37 50.26 51.81 53.08 54.90 54.09 55.18 56.74 59.76 60.34 60.09 56.64 54.85 54.71 55.56 56.11 57.76 58.36 59.40 59.16 55.01 51.68 50.81 53.97 55.23 57.36 56.72 56.05 56.51 59.51
49.82 49.86 49.47 49.60 49.81 50.24 50.86 51.91 52.89 53.67 52.78 53.34 55.61 53.10 49.91 49.15 49.31 49.68 49.15 50.36 51.44 52.84 54.19 55.04 58.37 58.99 60.31 58.11 55.06 51.60 49.51 52.68 52.24 54.20 58.43 58.78 59.89 55.47 54.11 49.55 47.09 55.01 58.08 60.13 59.76 53.28 60.01
50.15 49.86 49.56 49.55 49.75 49.81 50.50 51.11 52.47 53.06 52.96 52.48 54.89 54.60 50.09 47.62 51.83 50.52 50.21 50.10 52.12 52.16 52.17 54.56 54.15 56.05 59.14 54.91 52.18 51.04 50.58 54.61 50.36 51.33 54.27 54.72 55.09 52.12 51.55 50.79 52.88 58.07 59.99 60.93 52.92 55.40 61.04
49.55 49.77 49.73 49.70 49.64 49.66 50.05 50.66 51.74 52.76 52.72 52.13 53.61 55.12 50.46 47.51 49.19 50.48 50.56 50.07 52.10 51.08 49.77 52.53 51.97 54.65 54.77 52.57 52.46 52.27 51.58 52.20 52.77 55.22 54.45 54.34 52.69 51.28 52.48 50.62 48.33 60.04 59.40 55.85 61.40 62.24 62.15
49.62 49.49 49.62 49.85 50.00 49.87 49.85 50.34 51.34 52.32 52.46 51.66 51.94 55.09 54.38 49.51 49.50 52.90 52.08 52.22 51.21 53.08 51.29 52.39 52.95 55.15 55.27 53.87 55.62 55.50 53.50 55.05 54.50 50.64 58.76 53.27 57.34 55.19 55.77 53.32 62.18 62.46 61.47 62.66 62.94 62.03 61.97

GFSGBSN_sfc_wetblb_006.txt.gz
Wetbulb
56.81 56.67 56.82 57.05 57.22 57.03 56.65 56.39 56.73 57.25 56.94 56.85 57.12 57.45 57.64 57.52 57.42 57.71 58.07 57.93 57.46 57.54 58.91 59.30 59.43 59.18 59.37 58.34 58.31 68.29 73.75 73.30 64.68 62.15 61.16 61.74 59.00 62.57 60.42 59.66 59.38 60.63 61.80 62.37 64.17 64.16 63.78
56.24 56.28 56.17 56.55 56.47 56.20 56.09 56.01 56.10 56.47 56.47 56.76 56.81 57.08 57.08 57.23 57.35 57.53 57.64 57.22 56.79 57.15 59.49 59.34 59.25 57.55 58.91 55.51 63.36 65.90 63.51 62.28 61.62 61.28 61.76 61.63 60.79 64.38 61.27 59.38 58.88 62.47 62.30 61.74 63.11 62.30 64.04
55.71 55.71 55.93 56.19 55.97 55.64 55.44 55.33 55.64 56.08 56.03 56.12 56.54 56.66 56.73 56.96 57.08 56.81 56.82 56.40 56.08 57.02 59.36 58.75 58.59 59.84 60.40 57.05 63.93 65.63 63.89 60.57 61.90 62.16 60.79 61.92 63.62 63.41 61.74 58.91 63.78 62.56 59.77 61.37 61.31 62.98 62.72
55.19 55.20 55.31 55.45 55.66 55.42 55.19 55.11 55.29 56.02 56.07 56.17 56.25 56.43 56.41 56.51 56.64 56.48 56.03 55.60 55.71 58.06 59.06 58.39 58.86 61.37 58.57 64.68 64.61 64.64 64.16 60.76 61.10 62.60 62.22 63.04 66.28 62.69 61.06 61.94 61.33 59.80 60.11 56.35 61.49 62.99 62.26
55.05 54.92 54.81 54.71 55.44 55.75 55.68 55.31 55.39 55.82 55.66 55.58 55.62 55.76 56.04 56.05 56.01 55.54 55.01 55.03 56.00 59.89 59.88 59.49 60.77 61.45 60.21 65.53 60.42 65.08 64.16 58.93 59.69 61.54 62.25 63.58 65.16 60.41 60.12 57.49 58.18 58.50 54.86 56.66 59.02 62.68 61.40
54.91 54.81 54.43 55.22 55.00 55.42 55.35 55.24 55.46 55.49 55.47 55.45 55.23 55.33 55.43 55.44 55.07 54.56 54.04 54.91 59.76 60.31 61.47 63.54 63.05 60.28 63.90 61.64 60.48 63.39 64.28 60.78 59.39 59.47 59.16 61.85 61.18 57.15 56.98 56.58 52.65 54.69 55.62 57.60 57.75 60.82 62.17
54.30 54.14 54.64 54.87 54.78 55.02 55.15 54.84 55.21 55.23 55.29 55.25 55.06 54.76 54.65 54.52 54.26 53.67 53.87 58.08 62.37 62.09 63.74 60.92 59.70 58.43 60.53 64.28 63.72 60.57 62.30 59.31 58.69 57.43 55.84 60.16 55.64 53.12 55.22 57.40 58.37 58.42 56.92 56.81 58.82 62.10 61.26
54.88 55.02 54.96 54.75 54.50 54.68 54.78 54.74 54.95 54.92 55.15 55.00 54.76 54.45 54.46 54.08 53.60 53.15 53.68 55.79 60.76 61.94 57.67 61.51 62.06 62.07 62.73 61.98 57.77 58.43 61.29 56.35 55.60 53.67 56.99 56.57 53.38 56.60 57.89 58.03 56.86 56.62 55.44 55.44 58.67 60.71 60.41
55.27 55.14 54.85 54.38 54.24 54.31 54.58 54.40 54.58 54.65 54.67 54.69 54.39 54.22 53.85 53.50 52.80 55.75 57.87 60.69 63.95 62.86 57.52 58.46 60.19 59.04 60.65 61.25 57.77 56.86 58.94 57.08 54.49 54.38 55.32 54.00 55.46 57.79 56.78 55.73 54.85 55.50 53.84 54.35 56.22 58.70 59.25
55.38 54.80 54.39 54.29 54.34 54.38 54.42 54.12 54.37 54.36 54.26 54.32 54.16 53.91 53.38 52.14 53.48 56.45 56.43 62.29 65.50 64.24 53.30 54.09 56.63 59.08 60.13 60.32 56.73 59.91 60.01 57.71 55.67 54.18 55.52 55.11 57.60 56.44 55.68 54.49 55.09 52.46 55.92 55.33 54.81 55.21 51.85
55.02 54.58 54.44 54.51 54.32 54.29 54.16 53.82 54.22 54.14 54.04 54.06 53.97 53.63 52.66 51.60 52.47 53.67 57.59 60.31 61.95 61.58 43.90 55.42 56.02 62.09 60.31 58.11 57.66 56.80 60.53 57.43 54.70 54.79 55.28 53.08 54.69 54.90 54.47 55.14 56.31 53.71 56.60 55.15 54.93 53.49 53.16
54.86 54.81 54.59 54.51 54.44 54.20 53.97 53.61 53.83 53.59 53.75 53.64 53.54 52.94 52.35 54.38 55.33 58.35 60.76 61.18 59.62 52.16 44.44 53.20 56.68 55.42 55.79 57.06 56.45 57.89 56.98 58.41 58.33 55.37 55.75 54.93 57.62 56.02 55.26 56.45 56.52 56.97 57.12 55.85 54.82 53.31 49.39
54.70 54.42 54.36 54.42 54.35 53.88 53.61 53.53 53.47 53.32 53.44 53.09 52.33 51.45 51.28 53.81 51.88 57.70 57.35 57.48 50.33 46.94 54.65 51.99 53.23 55.17 54.90 54.35 54.05 55.61 54.07 52.86 51.90 50.86 50.70 53.38 54.07 56.99 57.34 54.78 56.96 56.35 54.80 50.01 48.49 48.44 47.94
54.17 54.56 54.36 54.01 53.70 53.75 53.84 53.65 53.26 53.27 53.19 52.37 50.87 49.95 53.70 55.86 57.19 56.26 56.59 51.73 46.27 52.36 52.42 55.53 55.10 54.92 52.61 54.57 53.19 54.08 53.08 50.86 54.31 53.55 51.36 49.59 48.53 54.93 56.98 55.70 54.52 54.55 54.44 50.18 46.57 47.12 49.33
54.23 54.10 54.22 54.19 54.34 54.16 53.96 53.46 53.30 53.23 52.82 51.86 50.16 56.31 55.96 60.40 60.28 58.28 52.93 47.05 49.06 52.08 55.91 53.64 55.01 51.88 52.05 53.89 52.70 53.15 52.48 51.22 53.78 54.68 51.90 50.61 51.31 57.14 56.80 57.71 57.31 54.72 52.59 55.86 52.02 52.58 49.55
53.47 53.59 53.70 53.90 54.16 54.18 54.10 53.65 53.42 53.28 52.60 51.11 51.39 53.96 55.30 58.47 62.19 57.16 49.75 46.02 51.50 54.53 55.71 56.49 52.38 53.62 50.38 51.79 51.06 52.36 51.84 53.95 53.64 56.19 57.42 55.29 52.06 55.45 56.25 57.70 57.60 56.16 57.35 51.29 52.04 48.03 46.62
52.63 52.69 52.97 53.54 53.81 53.89 54.26 53.93 53.58 53.13 52.36 51.31 53.55 54.72 58.27 59.10 61.65 53.13 46.21 49.35 52.49 55.25 56.50 55.62 54.79 54.15 52.42 51.90 52.25 52.22 52.36 54.16 55.42 55.99 57.51 56.55 55.25 54.07 55.85 54.20 53.24 54.45 53.63 54.34 53.75 52.41 48.37
52.04 52.60 53.01 53.56 53.58 53.71 54.02 54.02 53.46 52.43 51.21 51.73 52.97 49.11 59.42 61.71 53.46 52.11 48.44 51.74 52.51 53.87 57.31 57.01 56.78 55.83 55.05 55.06 52.40 52.18 52.50 54.59 56.98 56.97 54.43 56.82 54.88 52.33 53.26 56.85 57.52 56.19 55.05 55.68 51.34 51.95 53.47
51.42 51.79 52.00 52.95 53.48 53.77 54.04 53.91 53.14 52.16 51.77 50.30 49.88 52.80 59.15 60.49 49.21 49.89 52.48 52.41 54.00 53.30 55.47 55.78 54.58 56.19 57.19 55.87 52.92 53.38 53.81 56.99 57.98 56.95 56.46 57.32 54.45 50.51 51.90 54.22 56.22 54.08 55.49 55.13 54.89 54.64 53.93
51.46 51.62 51.81 52.47 52.82 53.17 53.54 53.42 52.91 52.18 51.85 50.66 50.08 49.14 53.10 56.72 55.50 52.36 51.52 52.27 52.10 54.87 54.82 56.98 55.74 56.54 55.12 55.21 56.89 54.17 53.86 55.92 57.88 57.71 63.64 61.33 54.20 53.96 48.50 52.71 54.95 53.57 53.72 54.24 53.62 52.38 52.42
50.99 51.12 51.34 51.79 52.02 52.47 53.15 53.25 52.91 52.50 51.67 51.07 52.42 50.82 55.42 51.97 51.73 52.65 53.47 54.17 53.65 51.62 55.86 57.58 55.57 55.28 55.34 54.13 54.62 53.92 54.89 55.23 56.54 61.67 58.20 57.11 55.88 54.06 53.39 53.65 53.86 54.06 53.83 53.88 52.95 54.71 52.24
50.73 50.43 50.48 51.09 51.72 52.00 52.62 53.11 53.21 52.78 51.40 52.72 50.61 48.17 52.58 51.43 54.75 55.90 51.35 53.42 54.43 54.20 54.55 54.36 54.13 55.17 55.97 55.05 57.51 56.53 57.55 58.32 55.73 57.17 56.26 57.50 55.04 54.62 52.22 53.93 53.66 52.18 53.53 54.83 54.47 53.95 53.80
50.78 50.52 50.24 50.41 50.75 51.35 51.72 52.49 53.21 52.89 51.44 52.18 53.63 51.15 50.48 50.04 52.63 53.01 53.92 54.80 55.23 56.58 56.19 56.77 56.23 56.18 55.22 56.47 59.84 60.89 60.17 60.02 59.99 59.32 57.24 58.18 54.75 54.85 50.73 53.53 53.32 50.81 53.50 53.59 54.79 56.23 55.64
50.67 50.78 50.50 50.22 50.25 50.59 51.05 51.72 53.05 53.36 52.37 50.74 53.50 50.28 47.72 47.92 50.86 52.05 53.91 55.11 55.04 56.30 54.84 56.93 57.31 56.32 59.97 61.13 61.64 61.21 59.83 59.20 59.81 59.39 60.12 59.50 59.15 56.33 51.83 54.85 47.25 54.14 58.11 56.68 55.21 56.31 57.37
50.67 50.52 50.49 50.23 50.04 50.31 50.59 51.03 51.85 53.28 53.09 51.14 53.65 51.27 46.59 44.65 51.30 51.58 52.73 53.22 55.42 56.42 55.62 55.39 58.03 59.91 60.86 59.05 56.54 54.58 54.80 55.79 56.63 59.03 58.89 54.89 58.57 54.12 51.78 50.36 53.08 54.97 57.16 57.22 55.43 56.76 59.56
50.45 50.47 50.69 50.40 50.08 50.27 50.43 50.78 51.44 52.93 53.07 52.04 52.98 55.01 49.59 45.11 49.00 50.75 49.62 51.28 50.77 53.14 54.26 55.55 58.85 60.30 58.39 55.42 53.76 50.96 48.78 52.06 52.26 54.44 59.36 57.84 58.57 55.30 53.98 49.13 47.12 56.16 58.82 60.31 59.44 52.81 60.15
50.19 50.19 50.48 50.48 50.38 50.29 50.52 50.72 51.25 51.83 52.84 51.89 51.49 56.29 50.91 45.34 51.33 49.52 48.40 48.73 52.85 52.73 52.17 55.58 56.20 55.79 57.72 53.42 50.53 49.69 49.42 54.25 50.44 51.32 54.25 54.27 55.64 52.15 51.81 50.18 52.17 58.18 59.61 60.00 49.84 50.77 59.21
50.09 49.98 49.94 50.05 50.20 50.20 50.32 50.56 50.99 51.78 52.74 51.96 50.74 56.50 51.38 47.58 48.73 50.35 50.66 48.81 50.54 53.10 49.72 53.32 53.14 54.00 54.07 51.97 50.80 51.18 50.89 52.42 52.95 56.38 52.94 54.82 52.86 51.49 53.62 50.94 48.87 60.64 58.99 55.25 62.56 63.61 62.47
50.05 49.83 49.88 49.70 50.03 50.26 50.39 50.50 50.67 51.06 52.36 52.18 48.82 55.07 55.39 49.81 49.45 52.54 52.61 53.58 52.33 52.33 51.23 52.31 52.48 56.75 55.69 54.13 54.56 54.14 51.55 53.39 54.21 48.74 57.17 52.56 54.64 53.39 54.84 52.97 58.20 62.43 62.06 63.58 63.28 63.98 62.42

GFSGBSN_sfc_wetblb_009.txt.gz
Wetbulb
56.44 56.22 56.92 56.76 57.16 56.86 56.54 56.11 56.28 56.68 56.35 56.32 56.34 56.67 56.87 57.03 57.24 57.52 57.92 58.01 57.59 57.20 57.65 59.61 60.10 59.85 57.43 54.49 55.75 66.08 73.79 73.60 67.12 60.46 57.08 57.03 57.49 55.82 53.69 58.21 57.13 58.29 59.41 61.82 63.08 63.29 63.78
55.89 55.75 55.77 56.15 56.40 56.10 55.97 55.85 55.80 56.17 56.41 56.13 56.34 56.69 56.88 57.02 57.19 57.44 57.51 57.22 57.03 56.93 57.42 59.96 59.71 58.91 54.23 50.84 60.93 62.71 63.14 62.84 59.83 56.72 56.19 57.54 57.93 57.34 56.29 58.38 56.75 60.93 59.06 61.41 61.48 62.58 64.64
55.29 55.29 55.10 55.11 55.24 55.55 55.60 55.32 55.40 55.86 56.05 56.27 56.28 56.40 56.42 56.68 56.90 56.73 56.96 56.55 56.11 56.45 57.41 59.77 59.28 58.86 56.58 53.05 60.60 63.66 60.00 57.45 58.39 56.75 55.37 58.87 60.40 56.22 56.57 56.46 61.67 61.27 56.73 59.41 60.91 61.67 62.76
55.11 54.94 54.71 55.16 55.35 55.33 55.30 55.47 55.48 55.99 56.01 56.03 56.01 56.10 56.05 56.23 56.43 56.31 55.88 55.65 55.70 56.67 57.61 59.85 59.37 57.60 51.70 61.24 61.46 60.59 60.61 57.83 58.04 57.72 57.82 59.63 60.24 56.85 56.40 57.43 59.76 56.68 55.42 51.40 58.63 60.48 63.00
55.09 54.37 54.51 55.66 55.70 55.38 55.42 55.52 55.58 55.53 55.50 55.60 55.70 55.73 55.64 55.62 55.55 55.18 54.63 54.87 56.43 58.36 59.42 59.99 56.80 55.20 56.07 66.03 60.21 60.59 61.13 57.59 55.09 54.89 57.20 61.11 58.28 55.88 57.82 52.28 50.76 53.34 49.10 53.44 56.11 59.50 59.70
55.28 55.46 55.66 55.53 55.08 55.14 55.06 55.22 55.11 55.16 55.24 55.17 55.15 55.13 54.98 54.90 54.79 54.16 53.86 54.79 57.94 59.51 60.42 62.08 60.80 54.79 59.12 60.42 58.34 59.62 61.48 60.06 54.43 54.18 54.85 54.69 53.95 53.13 52.13 48.36 45.67 49.29 50.56 54.82 54.84 58.10 58.59
56.02 55.76 55.68 55.07 55.01 54.84 54.85 54.84 54.91 54.90 55.30 55.15 55.19 54.84 54.61 54.37 53.89 53.30 51.92 51.11 54.36 57.45 60.34 58.39 56.44 57.05 58.36 61.55 61.78 57.84 60.60 58.37 53.71 51.44 48.84 52.17 50.80 48.89 51.27 52.20 52.82 55.29 54.16 54.86 57.96 59.42 57.87
55.99 55.86 55.28 55.13 54.89 55.09 55.02 54.85 54.54 54.67 54.97 54.93 54.72 54.53 54.20 53.98 53.24 52.76 51.08 49.70 52.50 55.90 52.89 58.13 60.68 61.34 62.49 62.58 57.75 57.96 60.01 54.48 50.81 48.69 50.69 49.84 49.84 54.85 56.44 55.32 54.34 53.52 55.38 54.25 57.37 60.27 57.77
55.77 55.51 55.10 54.90 54.94 54.85 54.76 54.53 54.36 54.15 54.35 54.25 54.19 54.12 53.83 53.32 52.48 52.69 53.65 55.06 59.98 59.61 51.83 55.36 58.36 58.07 57.79 59.66 56.60 54.91 55.82 54.40 49.90 48.50 49.50 48.77 53.52 57.65 55.67 53.15 52.63 51.72 49.77 53.28 55.11 59.24 59.67
55.55 55.18 54.95 54.83 54.74 54.62 54.49 54.26 54.21 54.15 54.02 53.74 54.00 53.90 53.26 52.36 50.91 51.13 49.58 55.29 58.34 58.51 46.12 50.44 53.84 57.17 58.14 58.39 54.12 59.03 57.09 54.31 51.23 48.65 50.38 51.02 55.63 55.11 53.35 52.17 52.74 46.52 53.84 53.53 53.54 55.36 49.35
55.10 55.08 54.85 54.74 54.56 54.41 54.11 54.13 54.04 54.00 53.49 53.69 53.98 53.69 52.48 51.93 48.14 49.50 53.35 57.03 57.80 55.80 38.45 54.56 54.50 59.01 57.51 54.89 55.60 55.00 57.64 54.33 50.05 50.51 50.26 50.67 52.59 52.63 51.93 52.72 53.81 50.13 54.17 52.11 51.54 48.72 48.10
55.06 55.06 54.91 54.80 54.74 54.40 54.25 53.98 53.86 53.65 53.38 53.55 53.53 53.05 52.41 50.81 49.82 52.43 55.72 55.26 53.82 44.45 41.22 51.98 54.36 53.45 53.54 54.47 55.47 56.41 54.58 55.26 55.25 51.92 52.29 52.42 55.92 53.99 53.69 55.51 55.00 55.27 51.34 51.03 48.94 45.44 40.41
54.80 54.72 54.78 54.75 54.54 54.47 54.41 53.98 53.92 53.50 53.28 52.95 52.25 51.47 50.61 51.17 46.75 52.16 52.18 51.49 43.79 40.64 52.76 50.82 50.55 52.89 52.03 51.39 53.43 53.92 51.07 49.62 47.65 44.31 46.05 51.07 51.76 53.45 54.22 50.44 52.65 51.03 47.68 41.91 40.44 40.24 40.39
54.28 54.49 54.36 54.25 53.86 54.12 54.22 54.10 53.96 53.59 53.18 52.39 50.79 50.04 50.60 52.60 51.20 51.36 50.33 45.50 39.81 48.60 48.39 53.18 52.58 52.32 49.94 52.17 52.15 52.22 49.90 47.91 50.44 48.78 46.22 45.22 44.45 50.74 53.52 49.83 48.22 48.34 47.46 43.29 38.91 39.87 44.29
54.07 53.87 53.95 53.69 53.77 53.96 53.98 53.81 53.55 53.50 52.93 51.88 50.22 52.34 51.97 55.45 54.83 53.67 47.51 40.48 42.76 47.96 51.97 51.53 52.58 50.92 49.09 52.13 51.82 50.42 49.48 48.68 49.76 50.09 45.08 45.15 46.20 53.36 54.15 54.12 52.59 49.31 46.47 50.20 44.68 47.22 42.72
53.30 53.16 53.21 53.47 53.69 53.79 53.91 53.69 53.63 53.47 52.89 51.36 48.51 49.99 52.11 55.35 57.70 52.86 45.39 41.37 46.82 51.19 52.24 52.04 47.25 50.29 49.03 49.84 49.84 48.42 48.63 51.61 50.80 52.39 52.32 48.63 44.49 51.39 53.48 53.75 53.69 50.99 52.75 46.01 43.99 38.90 38.50
53.20 52.62 52.52 53.16 53.46 53.69 53.85 53.81 53.63 53.32 52.33 51.46 49.08 49.64 56.61 57.47 58.44 50.52 41.76 43.59 48.21 51.66 52.21 49.59 48.25 48.36 50.81 51.08 50.05 48.11 48.39 51.96 52.82 51.98 52.89 51.02 46.97 49.40 52.15 48.95 48.47 49.03 47.49 48.31 46.66 44.88 39.82
52.24 52.46 52.77 52.85 53.05 53.22 53.38 53.46 53.26 52.29 51.49 49.54 48.64 44.62 56.16 55.98 49.31 49.98 45.63 46.55 48.19 50.27 52.47 51.54 51.91 50.86 51.65 53.06 51.60 49.05 48.44 51.16 54.36 53.01 49.53 51.92 47.70 47.15 48.95 52.87 54.38 51.49 48.96 49.22 44.08 42.79 45.33
52.19 51.78 51.83 52.43 52.68 52.89 53.07 52.99 52.56 51.88 51.96 47.28 44.17 47.19 55.02 56.02 46.16 47.53 49.83 48.08 48.89 49.21 50.11 50.59 50.75 52.16 54.18 51.69 49.12 52.93 51.91 55.01 54.80 52.81 50.45 52.05 48.95 44.52 47.65 50.24 52.35 50.39 50.69 49.46 49.87 46.55 43.06
52.18 51.55 51.30 51.20 51.99 52.85 52.72 52.39 51.84 51.79 51.92 49.06 46.00 45.62 51.69 52.49 53.03 49.97 48.56 49.12 48.75 52.42 51.25 52.25 51.82 54.44 53.64 50.95 52.58 51.22 53.29 55.77 55.35 54.08 60.35 57.71 48.16 47.05 43.78 48.28 50.86 48.65 51.05 50.67 46.98 42.91 43.76
51.69 51.69 51.08 50.95 50.89 51.27 52.31 52.14 51.83 51.84 51.79 49.30 48.41 47.72 50.17 45.46 47.36 47.12 49.83 51.09 48.33 48.83 53.01 53.14 51.02 53.12 52.20 49.42 51.04 51.27 54.73 56.86 55.81 59.01 57.23 53.51 46.92 48.35 49.38 51.45 51.31 52.23 51.72 50.81 47.35 47.02 45.69
51.29 51.59 51.31 50.93 50.82 50.95 51.41 52.01 51.89 51.90 51.60 49.69 48.22 45.20 46.49 43.52 47.29 49.64 49.71 49.95 51.17 50.01 53.09 53.33 51.80 53.86 53.54 51.61 53.40 51.81 54.23 54.28 55.18 53.90 53.71 53.61 48.30 49.64 47.15 51.77 51.23 49.74 52.10 52.80 52.59 51.06 49.37
50.57 50.89 51.19 51.14 50.80 50.76 50.72 51.51 51.91 51.70 51.43 47.77 49.86 51.74 45.91 43.60 44.57 45.37 48.25 48.54 51.86 51.95 55.27 56.14 54.90 54.00 53.05 55.27 56.80 55.40 55.78 56.78 54.41 54.80 52.41 51.34 50.73 46.78 43.14 48.70 49.03 45.97 49.85 50.95 51.92 53.24 52.28
50.84 50.99 51.14 51.10 50.96 50.62 50.58 50.95 51.53 51.82 51.97 49.58 48.23 48.43 44.71 41.27 45.76 46.70 47.33 49.29 52.46 54.15 51.91 54.10 55.83 54.60 55.94 57.50 58.69 57.26 55.96 56.15 56.66 56.03 56.42 52.69 51.74 47.97 43.88 46.79 39.71 48.16 53.92 54.96 53.99 55.09 55.41
50.92 51.03 51.12 51.18 50.83 50.68 50.47 50.81 50.83 51.76 51.85 49.75 49.55 48.34 45.65 39.02 43.84 45.96 46.17 46.68 49.81 52.09 54.31 55.04 56.68 56.86 57.34 54.91 52.42 50.91 49.74 51.27 53.95 56.04 55.58 54.75 50.80 47.15 43.95 42.51 46.17 51.50 53.46 54.00 52.31 51.31 56.47
50.90 50.64 50.81 50.94 51.12 51.10 50.76 50.72 50.78 51.62 51.64 50.80 49.34 51.30 48.88 42.00 43.47 47.16 44.57 47.27 45.65 46.74 50.02 54.12 58.14 58.20 56.25 51.21 50.98 44.71 46.04 50.52 49.75 51.26 55.43 55.15 53.79 48.87 45.22 41.84 41.55 48.91 56.35 58.81 56.91 48.04 57.15
50.54 50.58 50.62 50.56 50.65 50.74 50.91 50.79 51.06 51.02 51.53 51.05 48.95 51.43 49.25 42.80 46.45 47.24 43.87 42.46 46.97 46.73 47.78 51.13 50.43 53.44 55.37 48.57 45.76 45.85 44.68 52.08 47.26 47.48 49.68 49.23 49.00 45.64 44.80 44.65 47.62 55.25 58.41 58.94 47.15 48.58 57.36
50.14 50.35 50.47 50.33 50.26 50.42 50.62 50.61 50.88 50.87 51.39 51.27 48.77 51.02 49.56 45.91 45.89 48.33 49.28 45.18 45.13 45.16 43.98 48.09 48.96 52.43 51.34 48.08 46.77 46.61 46.79 49.01 48.44 50.76 47.84 49.43 47.11 44.38 47.00 44.37 42.78 57.98 57.92 53.15 54.54 56.96 59.19
49.78 50.24 50.22 50.22 49.98 50.07 50.44 50.89 50.80 50.52 51.13 51.76 46.97 51.10 51.99 48.18 46.99 50.99 51.03 51.60 50.57 50.10 45.75 46.43 46.80 50.58 52.69 49.45 50.22 50.29 47.93 49.13 49.54 45.71 53.82 48.49 51.35 51.27 51.68 51.07 55.96 57.35 54.71 57.71 58.24 56.67 57.54

GFSGBSN_sfc_wetblb_015.txt.gz
Wetbulb
55.02 54.94 55.41 55.47 55.43 55.65 55.46 55.67 55.77 55.77 55.44 55.64 55.77 55.78 55.71 56.06 56.22 56.31 56.39 56.59 56.47 56.68 56.89 57.61 58.30 60.26 54.78 49.26 50.83 60.35 73.28 73.68 69.64 60.74 56.70 53.47 53.25 53.16 51.53 51.63 54.51 56.29 59.06 60.93 62.69 61.89 61.76
55.04 55.35 55.49 55.20 55.00 54.96 55.03 55.19 55.29 55.33 55.26 55.12 55.83 56.21 56.23 56.05 55.87 55.88 56.36 56.37 56.22 56.02 56.33 57.33 58.25 59.95 51.04 44.89 54.20 57.63 63.45 67.01 63.46 57.59 55.26 54.10 52.62 55.14 53.08 52.04 54.03 59.60 59.73 60.96 61.28 60.27 60.51
55.53 55.38 55.19 54.98 54.90 54.66 54.88 54.94 55.04 55.16 55.54 55.50 55.63 55.80 55.88 55.94 55.63 55.42 55.67 55.75 55.31 55.65 56.45 57.80 58.47 58.22 53.34 50.66 55.33 55.53 56.76 57.37 56.74 56.73 52.41 54.78 54.28 52.30 52.50 51.08 56.03 61.02 57.45 60.73 60.63 59.49 58.15
55.87 55.21 55.06 54.87 54.86 54.92 54.75 54.67 54.69 54.61 55.40 55.54 55.58 55.56 55.60 55.41 55.47 55.38 55.10 54.75 55.22 56.16 58.72 58.20 59.89 55.44 47.99 57.28 58.90 59.55 55.20 53.44 55.38 53.87 53.50 53.94 55.46 52.73 51.62 52.89 57.89 56.79 55.67 53.77 58.25 60.80 61.09
55.72 55.52 55.04 54.62 54.89 54.88 54.76 54.82 54.82 55.17 55.15 55.04 55.08 55.08 55.22 55.10 55.01 54.42 54.07 54.13 55.52 59.75 58.74 59.69 53.93 52.00 49.93 61.44 59.18 60.53 56.78 54.92 54.49 52.61 53.13 57.40 54.08 50.67 50.59 48.33 48.28 50.80 52.07 51.32 56.15 60.70 60.56
55.19 55.42 55.27 54.53 54.52 54.74 55.22 54.95 55.09 55.06 54.96 54.98 54.69 54.67 54.60 54.46 54.21 53.68 53.36 54.09 54.37 56.72 59.50 59.76 59.34 50.73 52.62 52.34 57.93 58.37 56.75 56.77 53.67 51.50 51.51 49.58 48.51 45.99 46.47 45.15 41.62 50.46 49.84 52.95 54.19 59.58 59.15
54.96 54.87 54.65 54.44 54.24 54.46 54.72 54.74 54.86 54.84 55.02 55.01 54.65 54.36 54.27 54.13 53.52 52.87 51.03 45.76 45.24 48.02 54.27 51.96 51.36 53.19 55.14 57.74 58.73 58.60 56.71 53.75 49.64 47.13 44.71 46.68 44.38 42.66 45.47 48.87 49.50 50.71 51.49 53.61 56.78 58.64 57.97
54.87 54.60 54.36 54.08 54.39 54.58 54.21 54.43 54.50 54.52 54.40 54.62 54.44 54.09 53.89 53.64 52.89 52.36 47.96 43.82 45.64 47.40 42.88 51.21 53.82 55.29 57.23 56.88 54.74 56.74 56.52 51.26 47.71 43.58 44.87 43.54 42.43 47.31 49.40 51.16 50.33 49.39 51.36 52.36 55.01 58.41 57.64
54.84 54.57 54.60 54.52 54.62 54.59 54.47 54.22 54.34 54.23 54.19 54.32 54.21 53.93 53.70 53.03 52.01 48.50 44.15 46.05 50.37 47.69 41.72 47.83 51.50 51.93 53.11 56.80 53.91 54.67 55.25 51.01 46.69 43.60 43.85 41.34 44.85 50.47 51.31 50.88 50.46 47.14 47.48 51.08 51.74 56.24 57.49
54.81 54.85 54.84 54.51 54.39 54.12 53.97 54.11 53.97 53.89 53.93 54.03 54.05 53.70 53.23 51.14 44.29 45.37 45.16 46.54 47.93 48.32 39.76 45.20 47.92 51.81 53.53 55.60 52.08 58.81 56.44 51.86 47.43 45.76 44.57 44.15 48.31 49.66 50.19 50.09 50.71 43.87 51.10 53.49 53.90 53.00 47.98
54.74 54.70 54.38 54.11 53.96 53.69 53.97 54.09 53.99 53.99 53.82 53.68 53.72 53.50 52.48 50.96 44.97 43.89 46.72 46.98 46.73 46.77 33.32 48.59 49.67 55.79 51.90 51.32 51.97 53.44 56.42 51.42 47.72 45.71 44.75 43.54 46.68 46.91 48.10 50.45 52.29 49.59 51.49 50.45 53.53 51.80 49.31
54.31 53.78 53.37 53.13 53.39 53.31 53.62 53.60 53.66 53.39 53.27 53.39 53.29 52.91 52.09 47.21 45.36 46.53 48.30 46.79 45.10 40.74 35.21 47.30 52.21 49.32 48.83 49.11 51.58 52.40 52.38 51.97 52.19 46.14 45.07 45.85 49.41 48.88 48.46 50.79 53.00 53.19 49.07 46.09 44.93 46.08 42.75
53.70 53.30 53.05 52.75 52.47 53.04 53.43 53.37 53.17 52.96 52.84 52.45 51.80 51.16 50.50 49.42 41.69 44.45 44.37 43.86 38.54 34.55 46.70 45.95 45.05 47.77 46.04 45.38 49.05 50.24 47.50 46.19 45.61 41.97 38.34 44.02 46.10 47.48 51.57 47.09 49.48 47.85 42.81 37.01 37.48 39.75 40.46
53.15 53.30 53.16 53.11 53.23 53.15 53.25 53.29 53.06 52.74 52.32 51.63 50.37 49.94 49.14 49.10 48.48 47.05 42.45 38.89 32.66 42.31 43.56 46.97 47.26 47.94 45.60 47.21 46.58 48.84 45.50 44.96 45.62 43.32 40.11 38.46 39.36 45.46 48.57 47.97 45.85 44.61 43.43 37.69 33.54 34.11 39.68
52.66 53.29 53.53 53.13 52.98 52.86 52.96 53.06 52.82 52.28 51.87 51.08 50.00 43.79 43.96 46.18 48.64 44.57 40.01 32.01 35.58 40.96 47.22 46.68 45.66 43.68 43.04 46.83 46.76 46.66 43.49 45.55 47.90 44.64 41.06 38.38 39.82 47.92 49.26 49.97 49.25 44.38 41.05 44.89 38.98 37.74 37.58
52.65 52.65 53.43 52.90 52.71 52.61 52.54 52.73 52.57 52.10 51.51 50.65 45.87 41.24 42.74 48.95 49.06 41.58 36.65 34.05 38.19 45.60 47.00 45.76 40.77 44.01 40.77 43.18 44.04 43.63 43.26 46.95 46.35 47.11 46.11 42.86 38.08 44.68 48.97 49.13 48.54 47.77 46.93 40.38 38.27 34.81 34.00
52.79 52.54 52.74 53.01 51.92 52.29 52.07 52.27 52.24 51.95 51.08 50.61 40.00 37.39 43.90 48.92 44.88 39.23 32.13 34.00 39.85 44.65 45.10 44.16 43.36 42.54 42.39 42.39 43.31 41.78 43.66 47.60 49.45 48.37 47.95 42.52 40.91 42.02 45.69 44.29 45.58 44.57 41.62 40.40 41.06 38.63 36.44
51.81 51.93 52.57 53.02 52.50 51.67 51.86 52.25 51.80 51.01 50.16 48.16 39.79 32.13 45.42 47.45 38.95 35.75 34.37 38.44 44.34 43.48 44.71 43.97 44.69 43.70 42.65 44.38 42.44 41.87 43.24 46.26 51.20 50.04 43.76 44.35 41.23 40.72 42.70 46.26 47.48 45.45 44.66 43.51 41.52 37.24 37.16
51.66 51.61 51.45 52.07 52.77 51.86 51.42 52.11 51.28 50.58 50.32 46.94 39.50 36.72 46.15 44.36 34.08 36.70 40.86 44.47 45.85 43.74 44.21 44.02 43.03 44.94 46.15 44.07 40.90 44.11 45.96 50.81 52.85 50.79 47.17 44.05 38.06 36.67 38.86 40.85 44.03 43.90 44.81 41.94 40.70 39.63 39.16
51.40 51.01 51.19 51.53 51.67 51.97 51.69 51.84 51.05 50.45 50.31 48.25 40.13 35.60 41.18 42.14 39.38 37.61 37.69 41.40 44.26 49.87 46.97 46.73 44.41 45.53 45.70 43.13 44.61 43.17 46.71 51.06 54.55 50.86 57.81 52.05 37.78 42.41 40.28 40.63 43.62 43.22 45.70 45.47 44.09 39.36 39.17
51.11 50.60 50.86 50.92 51.09 51.28 52.18 51.73 51.13 50.59 50.32 48.34 40.99 39.53 39.26 35.68 38.26 37.83 36.82 41.29 44.12 43.39 47.36 48.80 44.64 47.47 47.22 42.17 44.14 44.97 49.30 51.69 54.41 56.24 54.01 47.19 40.29 40.11 44.93 46.14 45.81 46.11 46.89 46.00 44.35 45.09 44.24
50.81 50.58 50.83 50.98 51.56 51.50 51.69 51.50 51.29 50.85 50.07 44.82 40.68 39.15 41.69 38.96 37.36 37.42 38.49 39.48 41.31 43.06 43.37 46.47 44.89 48.39 49.28 44.79 48.26 47.33 49.12 47.62 48.74 50.74 45.36 44.26 40.41 42.55 41.54 45.32 46.36 45.55 47.20 48.03 47.90 45.57 45.37
50.49 50.40 50.57 51.02 51.53 51.23 51.41 51.32 51.35 50.67 48.28 40.77 41.78 42.06 41.56 40.60 36.70 36.55 38.45 39.90 42.14 43.41 45.41 46.97 50.79 48.10 47.87 49.12 51.93 52.18 52.33 52.07 50.21 48.27 46.46 42.35 44.23 38.63 41.29 43.34 44.44 41.61 45.97 46.56 47.74 49.52 49.17
50.34 50.49 50.93 50.83 51.40 51.26 51.37 51.26 51.33 51.02 49.05 46.10 43.82 44.52 40.77 36.93 38.00 38.24 40.53 41.09 41.84 43.11 40.94 46.27 50.49 48.53 51.02 52.61 53.13 51.38 48.98 49.23 50.44 49.91 48.15 44.46 42.77 39.52 41.89 41.26 37.94 45.35 50.67 50.85 51.30 52.21 53.37
50.53 50.57 50.72 50.70 51.02 51.37 51.17 50.73 51.16 51.02 50.87 44.07 45.11 44.20 41.82 37.80 40.11 40.46 40.95 40.52 42.05 42.11 43.08 47.50 50.97 49.68 49.47 46.92 45.18 46.86 46.12 45.61 48.83 51.92 47.32 47.40 41.72 40.33 39.31 39.32 44.09 48.58 51.77 51.63 49.15 48.63 53.31
50.32 50.42 50.25 50.57 50.70 50.83 51.23 50.38 50.41 50.98 50.87 45.90 43.47 46.31 43.31 40.18 38.16 42.57 39.85 40.39 38.56 38.90 40.21 46.99 50.44 49.51 49.18 44.30 44.13 40.96 42.46 45.78 45.78 47.24 50.56 47.36 44.73 43.44 39.52 37.94 38.30 48.03 52.64 55.78 52.94 44.70 54.21
50.21 50.09 50.23 50.04 50.40 50.51 51.04 51.19 50.46 50.46 50.81 45.24 43.40 47.52 44.76 40.84 42.91 42.44 38.21 37.14 41.06 43.26 38.66 44.08 44.89 45.83 50.03 42.18 39.58 40.02 40.04 49.03 44.68 41.94 43.41 45.20 45.37 41.21 41.21 40.99 43.80 50.95 53.52 55.25 46.52 44.83 52.64
50.22 50.11 50.06 50.03 50.09 50.32 50.44 50.77 50.63 50.39 50.68 46.11 43.36 46.57 44.90 42.53 42.44 44.81 45.29 41.42 40.87 41.59 39.26 43.17 41.27 45.94 45.56 43.23 43.61 43.22 43.36 43.20 47.33 48.26 44.87 44.90 44.33 43.67 42.53 39.36 40.09 53.37 52.85 48.77 50.59 52.70 52.93
50.30 49.96 49.90 49.71 49.81 50.11 50.44 50.36 50.32 50.25 50.47 48.61 42.29 46.81 48.11 43.21 41.59 46.54 47.28 48.39 46.73 45.71 42.75 41.61 40.17 44.49 45.93 42.12 45.14 43.91 45.32 45.41 45.35 43.97 51.42 44.49 48.60 47.12 45.19 44.08 50.13 53.56 51.29 53.16 53.53 51.02 52.99

GFSGBSN_sfc_wetblb_021.txt.gz
Wetbulb
55.76 55.68 55.76 55.47 55.35 55.11 55.15 55.21 55.23 55.44 55.37 55.41 55.53 55.50 55.47 55.57 55.97 56.10 56.12 56.33 56.40 56.23 56.57 56.95 57.63 58.36 57.13 52.88 53.97 58.86 71.35 73.01 70.24 63.33 58.04 56.74 54.70 55.60 55.26 57.54 57.12 57.79 60.40 62.49 63.54 64.38 65.42
55.79 55.28 55.18 55.26 55.12 55.01 54.92 55.10 55.06 55.01 55.10 55.03 55.19 55.12 55.07 55.32 55.48 56.02 56.47 56.35 56.02 55.79 56.33 57.08 58.10 58.22 55.15 49.17 57.61 60.50 66.82 67.05 65.58 60.65 57.73 57.15 55.70 58.07 57.08 56.16 57.30 59.83 61.63 62.98 63.51 63.89 65.18
55.57 55.45 55.20 54.84 54.80 54.58 54.44 54.31 54.70 54.50 54.53 54.54 54.57 54.80 55.06 55.22 55.21 55.33 56.04 55.80 55.24 55.31 56.47 58.25 59.13 57.50 53.50 52.75 57.89 58.39 61.12 63.40 63.57 59.95 56.92 57.42 57.69 57.84 57.60 55.25 59.71 62.50 60.38 62.26 62.46 63.68 62.90
55.38 55.32 55.25 54.92 54.61 54.47 54.46 54.32 54.16 54.19 54.23 54.28 54.48 54.72 54.96 54.90 55.02 55.18 55.27 54.78 54.58 55.91 58.06 59.68 59.49 58.10 52.64 58.01 59.92 59.88 60.61 58.33 61.67 59.17 59.33 58.70 57.70 55.83 55.91 59.47 62.32 60.20 60.46 56.89 61.36 62.70 63.18
55.34 55.36 55.02 54.34 54.28 54.33 54.19 53.92 53.84 53.97 54.19 54.35 54.28 54.37 54.71 55.11 55.11 54.70 53.91 53.84 55.60 58.42 59.09 60.38 57.55 54.83 53.38 63.39 59.17 61.18 61.15 56.55 59.71 58.95 58.35 57.40 57.64 54.03 54.84 58.35 57.89 58.08 54.97 56.52 58.41 62.81 62.13
55.28 54.94 54.44 54.52 54.46 54.22 54.06 53.81 53.60 54.31 54.45 54.56 54.46 54.42 54.25 54.52 54.13 53.19 52.90 53.82 54.73 57.39 59.80 60.12 59.53 54.46 58.09 56.18 58.00 59.95 60.45 57.78 56.03 55.86 55.22 53.99 53.65 51.41 52.87 55.36 50.37 54.38 55.26 56.89 57.52 60.49 61.52
54.82 54.67 54.40 54.54 53.93 54.13 54.11 54.05 53.28 53.59 53.71 54.14 54.17 53.92 53.74 53.66 52.90 52.16 51.88 50.54 52.17 51.82 53.79 54.64 55.23 55.76 55.54 57.66 58.91 58.68 58.72 55.36 55.38 54.44 50.53 51.94 49.25 47.20 51.45 56.50 57.53 58.14 57.31 56.80 59.28 61.77 60.27
54.55 54.35 54.19 54.29 53.88 53.55 53.19 53.12 53.28 53.15 53.15 53.46 53.80 53.49 53.20 52.87 52.18 51.88 49.24 47.37 47.73 47.53 43.61 48.65 49.13 51.74 54.71 57.10 53.01 56.63 58.91 54.96 52.46 49.85 49.69 49.38 46.95 50.65 52.71 54.79 56.49 58.01 57.06 56.92 59.21 61.55 60.56
54.39 54.18 54.25 54.07 53.61 53.64 53.49 53.36 53.52 53.66 53.68 53.78 53.51 53.02 52.69 51.65 51.48 49.51 45.97 48.04 49.80 49.94 43.76 47.34 49.16 49.44 51.15 53.01 51.15 52.67 57.37 54.91 52.58 49.45 48.44 47.79 49.10 51.19 51.03 51.51 51.64 56.60 56.69 57.22 57.09 59.62 61.02
54.45 54.66 54.74 54.15 54.15 53.85 53.75 53.35 53.18 53.20 53.23 53.53 53.33 52.73 52.17 50.19 47.78 46.86 47.89 50.28 50.23 49.53 44.39 48.13 49.60 52.65 53.88 54.11 50.51 55.38 57.96 56.27 51.29 50.90 48.13 48.12 50.50 49.33 49.91 50.60 52.82 51.38 58.09 58.94 58.21 57.13 53.33
54.59 54.56 54.39 54.09 53.96 54.08 53.85 53.37 52.92 53.02 52.79 52.87 52.71 52.34 51.23 50.16 47.41 45.93 48.28 49.82 50.14 49.64 37.62 49.27 50.69 56.67 55.30 52.87 52.81 53.06 58.37 55.85 52.26 50.41 49.77 49.14 47.67 48.52 48.18 50.45 53.40 52.83 56.79 57.42 58.50 57.17 56.18
54.12 54.20 53.78 53.83 53.90 54.03 53.66 52.98 52.67 52.75 52.59 52.46 52.21 51.57 51.06 48.61 48.00 49.11 50.28 49.39 49.56 44.97 37.11 47.27 52.75 51.53 50.95 52.36 52.15 54.45 54.57 56.94 55.75 52.09 49.48 51.40 50.91 51.16 50.97 52.94 54.24 54.81 54.33 54.24 56.42 55.89 49.60
53.78 54.25 53.97 53.56 53.40 53.95 53.39 52.75 52.58 52.58 52.32 51.74 50.98 50.00 49.75 49.65 45.83 48.95 49.27 47.35 42.19 38.57 47.74 46.30 48.36 49.44 49.31 49.77 50.52 51.86 51.31 51.08 50.03 47.35 47.08 49.73 49.69 51.44 52.12 50.81 54.46 54.02 52.64 47.26 46.40 47.36 46.67
53.89 53.37 53.24 53.85 53.55 53.47 53.51 52.85 52.46 52.32 52.17 51.18 49.24 49.00 49.46 49.91 50.69 50.38 47.25 42.78 36.26 42.37 44.96 48.55 48.30 48.72 46.70 49.12 49.80 50.06 50.27 48.59 52.86 51.95 48.71 45.76 43.85 49.11 51.85 51.20 50.79 51.68 51.83 47.72 42.78 43.92 46.87
53.59 53.28 53.34 53.05 52.92 53.14 53.31 53.08 52.50 52.17 51.78 50.46 49.01 48.08 46.07 48.93 49.97 48.79 42.30 35.83 38.88 42.47 47.70 46.40 47.94 45.79 46.40 48.01 48.35 49.16 49.30 48.83 51.18 53.03 47.48 46.12 46.04 49.20 50.95 52.45 54.27 51.36 48.68 54.13 49.02 46.61 47.64
53.29 52.88 52.92 52.96 52.77 52.75 52.65 52.60 52.87 52.17 51.60 50.01 46.04 43.63 43.76 50.79 50.98 45.40 39.38 37.28 39.66 45.96 48.66 48.32 44.81 46.76 44.48 46.04 46.09 47.51 47.93 50.70 50.69 52.61 54.79 49.06 44.99 49.09 49.67 52.35 52.33 52.06 53.52 47.16 48.28 44.42 42.21
53.71 53.43 52.64 52.36 52.57 52.40 52.11 52.27 52.48 52.05 50.99 50.16 44.50 39.91 46.75 50.75 47.21 42.57 36.59 37.00 40.05 44.34 47.70 46.02 45.99 45.71 46.43 45.59 46.24 45.56 46.09 49.30 50.71 50.95 54.02 51.92 48.43 46.77 49.33 48.18 48.38 48.87 48.50 49.33 51.05 49.41 46.13
53.50 53.29 52.85 52.29 52.02 52.08 51.35 52.17 51.86 50.97 49.95 47.25 42.35 35.80 47.98 49.30 41.76 40.14 38.15 40.07 42.11 43.58 44.98 45.66 46.05 46.97 46.55 46.36 45.52 45.24 45.49 48.48 51.35 50.66 48.49 51.56 50.11 46.08 46.98 50.72 51.31 50.98 50.07 50.82 47.65 46.51 47.49
52.75 52.40 52.07 52.51 51.69 51.21 51.44 52.02 51.67 50.62 50.19 45.43 38.72 39.43 47.75 47.05 38.25 39.72 42.81 43.44 46.03 43.66 44.63 44.02 43.36 46.05 46.98 45.19 43.43 45.52 46.51 50.17 51.40 50.44 50.56 49.60 47.78 44.19 46.05 49.05 49.97 48.21 49.80 50.96 50.95 50.87 49.79
52.26 52.13 51.80 51.94 51.38 51.00 51.40 51.98 51.55 50.78 50.27 46.81 40.00 35.65 44.25 44.61 43.10 40.62 39.69 41.23 42.35 48.60 47.86 45.75 45.53 46.90 45.49 44.10 46.63 44.98 46.06 49.56 51.44 50.76 58.43 54.84 49.36 47.77 44.14 47.17 49.74 47.63 48.00 49.26 49.02 47.16 47.58
51.99 51.81 51.75 51.64 51.35 50.78 51.10 51.83 51.77 50.71 50.09 46.69 40.93 38.71 41.90 39.20 41.42 41.55 40.66 40.37 39.89 41.12 47.79 47.92 47.43 45.67 45.53 43.49 45.03 44.96 47.97 48.67 50.88 55.15 55.17 54.68 49.56 49.92 50.97 51.16 50.05 48.89 47.82 48.34 48.10 49.86 47.90
51.54 51.45 51.33 51.24 51.16 51.04 51.02 51.77 51.48 50.87 49.26 44.29 38.67 38.92 40.40 39.12 40.78 40.23 39.89 39.69 40.86 42.70 43.76 45.07 45.81 48.67 49.16 46.32 48.20 46.10 48.55 49.41 49.05 52.98 52.19 52.01 49.32 49.74 49.02 51.48 49.97 47.97 49.33 49.21 49.17 49.38 49.99
50.82 50.91 51.10 50.95 51.12 51.08 51.25 51.33 51.63 50.71 47.79 42.98 43.45 43.51 39.67 37.13 37.73 37.81 38.98 39.89 40.71 41.97 44.78 45.99 44.97 43.75 44.60 48.63 51.80 52.16 52.85 52.31 52.95 52.94 54.12 52.99 49.63 47.01 45.02 49.77 48.05 45.01 48.81 49.47 50.36 51.73 51.18
50.55 50.61 50.72 50.72 50.80 50.95 50.96 50.85 51.06 50.81 49.12 46.50 43.58 41.51 37.38 32.54 36.29 37.58 40.07 40.82 40.38 41.24 39.99 43.43 44.27 43.14 47.75 52.02 51.93 53.20 51.07 51.69 53.26 54.24 55.82 52.28 50.60 48.46 47.12 46.44 39.10 48.92 53.15 52.45 50.93 52.00 53.36
50.86 50.93 51.10 50.85 50.74 50.74 50.76 50.70 50.43 50.83 50.34 47.87 45.41 42.97 38.44 32.18 36.29 36.68 38.29 40.32 41.86 43.09 41.57 42.43 45.01 48.04 50.15 48.05 47.83 48.21 48.66 49.22 50.75 53.71 53.66 55.70 51.47 48.85 46.25 45.34 47.75 50.22 53.77 50.77 49.40 51.09 55.57
51.04 51.10 51.02 51.12 50.97 50.70 50.67 50.51 50.30 50.59 50.65 48.88 46.22 45.53 41.08 33.96 33.34 37.35 38.07 39.44 38.05 38.81 40.89 43.37 48.08 49.87 51.11 49.43 47.30 44.00 43.85 47.86 47.37 50.11 53.89 52.82 53.49 51.24 46.39 43.48 41.65 50.90 53.98 56.61 56.47 48.96 57.85
50.44 50.51 50.91 51.23 51.19 50.66 50.65 50.57 50.55 50.55 50.28 49.13 46.56 46.65 43.25 36.34 38.57 39.96 36.61 37.93 41.72 41.30 39.35 41.60 43.77 45.01 51.37 48.74 45.33 44.66 45.30 50.74 46.81 47.43 49.58 51.51 51.46 47.57 46.19 44.64 48.62 53.49 55.36 56.81 48.87 51.96 56.92
50.46 50.58 50.72 50.96 50.76 50.68 50.34 50.44 50.29 50.27 50.01 48.28 47.08 47.29 44.41 39.03 39.28 41.21 41.59 37.97 40.69 41.16 36.85 41.63 41.47 45.54 47.35 46.63 47.55 46.99 46.40 50.06 50.14 51.98 50.99 50.17 48.92 47.84 48.68 45.13 44.06 55.47 55.29 52.26 55.62 58.26 58.58
50.00 50.13 50.37 50.28 50.32 50.17 50.08 50.02 49.41 49.40 50.04 49.33 44.69 45.99 47.81 41.41 39.30 44.07 44.19 44.90 44.86 44.01 40.99 43.33 42.94 41.46 46.45 45.50 47.15 47.50 48.70 50.64 50.50 47.19 53.51 48.90 52.86 48.88 48.97 48.96 54.95 55.32 55.53 57.15 58.01 57.98 59.25

GFSGBSN_sfc_wetblb_024.txt.gz
Wetbulb
56.30 55.80 55.78 55.46 55.48 55.61 55.32 55.37 55.63 55.39 55.32 55.36 55.39 55.44 55.61 55.75 55.96 56.31 56.60 56.90 56.71 56.44 56.66 57.11 57.88 58.56 60.37 57.27 56.41 62.98 72.05 72.80 67.99 63.13 59.91 58.66 57.38 56.95 55.41 59.71 62.50 62.54 61.55 63.12 63.43 65.74 66.10
56.16 56.06 55.48 55.32 55.14 55.09 54.97 54.95 55.08 55.07 55.04 55.03 55.06 55.38 55.70 55.74 56.09 56.39 56.66 56.50 56.34 55.74 56.29 57.17 58.16 58.80 59.15 51.88 60.28 61.63 65.35 66.51 65.58 62.33 59.74 59.06 57.58 58.50 57.46 59.29 61.23 63.06 61.91 62.71 63.45 64.95 66.62
56.07 55.82 55.51 54.65 54.86 54.63 54.59 54.57 54.58 54.74 54.76 54.93 54.70 54.92 55.36 55.40 55.11 55.83 56.24 55.86 55.01 55.24 56.32 57.71 59.04 59.71 56.75 55.06 60.39 61.79 61.29 61.82 64.15 62.44 58.95 59.35 59.96 57.59 58.97 58.44 61.41 61.57 60.21 62.82 63.52 65.32 65.40
55.84 55.50 55.19 54.80 54.92 54.25 54.10 53.96 54.20 53.96 54.21 54.14 54.44 54.67 54.48 54.50 54.70 55.13 55.00 54.57 54.43 56.46 58.19 59.88 60.71 60.58 55.59 60.69 62.33 61.36 62.24 61.44 63.00 64.19 61.23 60.81 60.75 58.88 59.12 61.56 61.28 59.55 60.05 58.24 63.63 65.25 65.71
56.02 55.59 55.18 54.89 54.92 54.17 54.24 53.97 53.92 53.74 54.23 54.63 54.42 54.24 54.30 54.46 54.60 54.16 53.51 53.59 55.46 59.72 59.38 60.37 61.66 59.95 55.49 63.17 61.47 63.77 64.00 60.18 61.46 61.29 61.52 60.09 59.91 57.20 58.32 57.86 57.53 59.22 55.84 57.17 60.86 65.11 64.39
55.30 55.11 54.75 54.90 54.87 54.38 54.51 54.30 54.01 54.15 54.45 54.51 54.50 54.37 54.13 53.98 53.61 52.83 52.62 54.12 57.40 59.03 61.67 62.81 62.35 57.51 60.17 58.24 61.53 61.71 64.14 61.22 60.10 58.69 57.65 56.85 56.63 54.25 55.21 56.03 52.76 55.72 56.07 57.18 58.62 62.70 63.99
55.05 55.00 54.76 54.87 54.71 54.19 54.16 54.15 53.63 53.45 53.72 54.10 54.39 54.19 53.76 53.30 52.62 51.84 53.11 56.00 56.74 57.56 60.18 57.28 58.03 58.03 57.65 60.19 61.36 60.89 61.99 59.27 59.06 56.74 52.25 54.46 52.02 50.47 53.76 56.61 58.54 58.57 57.61 56.84 59.83 63.96 62.77
55.12 54.63 54.43 54.39 54.29 54.26 54.11 53.90 53.54 53.27 52.92 53.29 53.84 53.61 53.20 52.72 51.81 51.64 53.54 51.60 50.45 50.05 47.99 53.46 53.02 54.27 58.16 58.98 55.08 59.43 61.90 56.09 56.02 51.69 53.34 51.91 49.67 54.48 56.17 56.32 56.78 57.24 56.94 56.95 60.67 63.44 62.89
54.86 54.57 54.43 54.39 54.28 54.58 54.59 54.50 54.05 53.70 53.45 53.61 53.47 53.20 52.81 52.05 51.19 54.36 52.22 52.93 54.32 52.96 48.45 51.70 53.37 52.64 53.76 55.24 53.80 56.13 59.79 57.52 54.65 52.69 51.86 50.38 51.49 54.78 54.02 54.66 55.21 57.13 56.96 57.24 58.46 62.13 63.26
54.99 54.89 55.00 54.88 54.64 54.55 54.34 54.46 53.92 53.45 53.20 53.18 53.24 52.93 52.23 50.86 51.27 52.20 52.50 55.06 54.95 53.33 46.79 50.89 51.87 54.37 55.40 55.47 52.18 57.58 60.30 57.93 55.07 52.49 52.36 51.68 53.57 52.39 51.94 52.26 55.58 54.92 59.00 58.71 59.00 59.24 55.65
55.20 54.97 54.86 55.14 54.73 54.40 54.34 54.09 53.78 53.18 52.99 53.05 52.93 52.49 51.28 50.09 50.54 50.90 52.45 54.60 54.20 53.13 41.16 51.92 52.99 59.01 57.59 55.15 55.12 54.86 58.77 58.08 53.40 52.98 53.47 50.61 50.92 50.68 50.50 51.61 55.71 55.20 58.75 58.37 59.10 58.74 58.20
54.91 54.94 54.94 54.30 54.03 54.32 54.04 53.80 53.55 53.01 52.72 52.77 52.41 51.92 50.98 52.43 52.78 53.20 54.46 53.94 53.72 46.78 40.67 49.36 54.08 53.28 53.42 54.98 54.97 55.97 54.81 58.74 57.70 53.94 54.13 53.05 54.88 52.82 52.19 53.55 54.41 57.32 56.64 57.42 58.16 57.51 52.78
54.70 54.54 54.24 53.78 53.61 53.70 53.51 53.61 53.45 53.07 52.73 52.21 51.22 50.04 49.97 52.17 50.08 54.41 54.11 50.04 44.50 41.78 49.92 48.26 50.35 53.28 52.18 52.18 53.45 54.06 52.14 52.09 51.32 49.59 49.92 51.68 51.73 52.92 53.24 51.38 53.69 55.01 54.53 50.97 50.05 50.55 50.40
55.16 54.58 54.53 54.28 53.78 53.45 53.36 53.38 53.12 52.77 52.85 51.84 49.89 48.54 52.33 52.35 55.22 54.21 51.47 44.36 39.82 45.15 47.33 51.42 51.10 51.98 49.84 51.62 52.10 52.89 51.82 49.94 53.03 52.71 50.79 48.21 45.94 51.60 52.92 52.02 51.43 52.43 54.25 51.08 46.41 47.84 50.92
55.70 54.87 54.55 54.20 53.56 53.24 53.32 53.14 52.52 52.41 52.25 51.12 48.85 51.72 51.03 54.49 54.31 53.50 47.38 39.15 42.14 45.48 48.65 48.08 50.61 49.06 49.87 51.36 50.77 52.14 51.81 50.84 52.11 53.74 49.75 48.96 48.64 53.34 53.51 53.43 53.85 52.69 51.86 56.50 53.28 54.05 51.24
55.52 54.95 54.68 54.11 53.53 53.08 52.87 52.52 52.31 52.31 51.73 50.28 48.37 48.72 49.52 54.05 55.43 51.88 43.71 39.73 44.38 47.04 48.22 50.09 46.38 49.50 48.19 50.21 49.36 50.48 51.16 52.84 52.04 53.85 55.96 53.07 48.56 52.75 53.15 53.99 53.71 54.03 56.19 51.40 53.29 48.19 46.66
53.94 53.84 53.49 53.27 53.30 52.66 52.45 52.48 52.37 52.21 51.17 49.87 48.45 44.48 52.29 55.66 54.40 48.13 41.53 42.22 44.07 47.04 47.54 47.69 47.59 48.27 49.05 48.84 50.10 49.73 50.37 52.86 53.87 53.38 55.61 54.51 51.91 50.96 52.97 50.99 50.15 50.95 51.76 54.05 54.32 52.62 48.81
53.38 53.50 53.43 53.33 53.06 52.83 52.00 52.39 52.20 51.66 49.81 49.10 46.20 40.68 52.94 54.34 44.78 45.88 42.99 45.50 44.48 44.64 47.09 46.66 48.22 48.55 48.21 49.15 48.86 49.39 49.24 51.40 53.60 55.16 51.86 54.85 52.95 48.83 49.47 52.96 53.88 53.35 52.65 54.40 50.93 51.08 52.66
53.15 53.17 53.08 52.85 52.87 52.38 51.85 52.04 51.94 51.13 50.09 48.35 43.19 43.40 51.75 50.73 39.40 42.11 45.45 44.67 46.14 45.50 45.35 45.18 44.77 47.28 48.61 47.85 47.09 49.43 50.42 52.93 52.73 53.13 54.11 55.41 52.07 47.92 48.54 49.94 52.19 50.59 52.93 53.81 54.78 54.62 53.36
52.56 52.48 52.38 52.37 52.37 52.12 51.85 51.74 51.33 51.02 50.39 48.54 43.77 39.08 46.23 48.80 47.95 44.01 43.38 44.21 44.55 47.89 47.59 47.29 46.86 47.38 46.65 46.62 49.73 48.56 48.89 51.09 52.01 52.23 59.87 57.10 53.41 50.85 47.37 49.26 50.65 48.67 49.80 52.08 52.36 51.33 51.47
51.77 51.79 51.93 52.10 51.91 51.85 51.64 51.79 51.48 50.78 50.39 47.77 44.56 41.54 44.06 39.76 43.39 44.05 45.01 45.13 42.91 43.78 48.41 50.08 48.37 46.27 46.01 44.59 46.07 46.46 49.00 50.59 52.56 55.77 54.13 52.94 50.61 52.56 52.59 52.67 52.51 51.38 49.87 49.78 49.52 51.09 49.72
51.60 51.43 51.28 51.29 51.29 51.30 51.29 51.66 51.27 50.75 50.07 45.21 40.17 40.49 43.38 40.76 42.04 40.90 40.26 41.05 42.35 44.27 46.40 46.45 47.41 48.40 47.19 46.22 47.35 46.39 48.46 49.63 49.66 52.60 52.97 55.76 51.97 54.00 51.73 52.90 52.45 50.85 51.91 51.62 50.88 50.75 51.09
51.37 51.28 51.27 51.16 51.21 51.25 51.35 51.28 51.18 50.66 48.86 44.16 45.57 46.00 41.66 39.46 37.70 37.49 39.38 41.14 41.30 44.87 46.29 47.83 48.21 47.29 48.13 49.97 52.77 54.16 55.08 54.76 52.84 52.28 52.85 53.10 51.93 51.88 49.01 53.02 52.55 49.50 52.24 52.59 52.89 53.03 51.83
51.58 51.47 51.41 51.41 51.41 51.27 51.16 50.97 50.97 50.74 49.94 47.56 46.18 45.05 37.63 36.54 39.31 37.62 39.68 41.10 40.38 41.62 41.06 44.77 47.05 45.06 50.06 53.32 52.88 53.57 54.75 54.89 54.82 54.65 55.97 54.52 54.35 52.88 49.86 52.10 44.66 53.22 56.89 55.89 53.96 54.44 54.42
51.14 50.92 51.35 51.49 51.62 51.56 51.45 51.14 51.01 50.84 50.52 47.42 47.56 42.71 39.12 34.69 39.51 38.24 37.98 39.01 40.72 42.27 41.95 43.22 45.32 48.39 51.64 49.80 47.48 47.95 49.77 51.08 52.10 53.72 53.84 55.81 55.53 51.48 49.18 49.32 51.60 52.88 54.77 54.44 53.60 53.37 56.41
50.69 50.90 50.88 50.70 50.72 51.43 51.53 51.01 50.84 50.82 50.53 49.07 48.24 47.76 41.89 36.82 37.68 40.83 38.52 39.71 38.79 39.62 41.21 42.93 48.29 51.42 50.60 47.66 47.85 44.42 43.41 47.56 46.78 49.54 54.82 55.64 56.47 53.76 52.24 47.27 45.18 54.18 57.95 59.96 59.43 51.53 57.41
50.25 50.36 50.80 50.94 51.11 51.26 51.30 51.14 50.87 50.70 50.55 49.06 47.81 49.87 43.29 36.92 41.26 42.27 39.46 39.50 42.97 41.57 41.24 43.54 44.22 46.39 51.57 48.74 45.80 44.75 45.77 50.47 45.97 47.50 50.11 52.43 53.42 50.71 50.62 49.58 52.38 56.65 58.00 59.76 50.05 52.89 61.45
50.00 49.95 50.29 50.52 50.90 50.84 50.82 50.82 50.64 50.48 50.20 49.59 47.67 49.15 44.66 39.17 39.98 44.69 44.79 41.29 40.82 39.80 37.48 43.65 42.08 46.41 46.67 45.70 46.58 46.48 48.70 49.56 49.43 52.66 52.36 51.29 50.39 50.27 52.24 49.82 47.78 57.48 58.15 54.29 58.96 63.34 62.74
50.01 50.01 50.20 50.42 50.61 50.61 50.01 49.83 50.05 49.67 48.96 49.50 44.71 49.71 51.18 42.13 40.58 47.52 47.51 48.13 46.68 45.84 42.47 42.97 42.62 44.10 43.30 44.03 46.48 47.17 49.00 52.94 52.18 48.33 57.11 50.75 54.46 52.61 54.07 53.89 57.69 58.32 57.87 60.30 61.02 61.75 64.45

GFSGBSN_sfc_wetblb_027.txt.gz
Wetbulb
56.59 56.53 56.20 55.76 55.83 55.51 55.33 55.27 55.41 55.24 55.50 55.48 55.45 55.42 55.46 55.48 55.59 55.97 56.48 56.84 56.63 56.28 56.63 57.17 57.84 58.55 60.98 58.00 57.32 67.58 72.99 72.55 69.16 67.51 66.28 62.60 61.70 60.99 60.61 60.12 62.52 63.80 63.26 63.08 63.71 64.38 65.05
56.48 56.23 55.94 55.59 55.63 55.31 54.93 54.87 55.36 55.06 54.83 55.08 55.05 55.20 55.30 55.16 55.65 55.89 56.05 56.10 56.12 55.71 56.25 57.27 57.99 58.41 59.53 53.30 61.74 65.35 64.31 67.98 64.78 63.34 61.62 61.19 59.86 61.23 59.49 59.62 61.04 64.30 63.79 62.65 63.37 64.19 64.83
56.47 55.93 55.81 55.64 55.74 55.16 54.85 54.83 54.77 54.59 54.68 54.79 55.07 55.53 55.64 55.63 55.10 54.77 55.45 55.32 54.72 55.19 56.27 58.40 58.70 60.15 57.77 57.15 61.51 62.36 64.34 63.64 64.04 63.52 59.96 60.62 61.03 59.23 59.99 58.34 62.20 63.75 60.69 62.45 62.70 63.87 63.57
55.95 55.72 55.53 55.42 55.52 55.15 54.79 54.67 54.40 54.14 54.11 54.39 54.81 55.15 55.39 55.53 55.23 55.00 54.69 54.27 54.17 55.67 58.69 60.53 60.07 61.88 56.28 62.64 63.91 61.45 62.00 61.01 62.99 64.44 62.26 62.18 61.31 59.84 59.24 60.82 61.47 60.31 61.26 58.45 62.16 62.91 64.84
55.70 55.59 55.31 55.25 55.23 55.00 54.80 54.54 54.24 54.02 54.46 54.57 54.47 54.73 54.55 54.71 54.48 53.93 53.26 53.49 54.97 57.99 60.89 60.63 62.82 61.90 57.27 64.05 60.19 61.21 61.83 59.52 61.62 61.89 63.17 61.98 60.16 57.75 58.76 56.33 57.25 58.98 56.37 57.34 59.32 63.35 64.50
56.32 55.90 55.66 55.16 54.98 55.12 55.01 54.97 54.57 54.58 54.62 54.37 54.40 54.29 54.11 53.93 53.63 52.93 52.47 53.63 58.37 59.54 61.83 64.51 64.32 59.72 60.17 58.60 62.07 63.05 64.44 62.78 59.79 59.78 59.00 58.32 56.83 54.86 56.31 55.79 52.63 56.36 56.59 58.21 59.47 61.02 63.87
56.07 55.59 55.14 54.94 54.80 55.35 55.19 55.09 54.96 54.35 54.43 54.21 54.20 53.94 53.80 53.34 52.91 51.93 53.28 58.55 58.08 59.25 61.49 59.31 59.97 58.15 58.74 61.52 62.87 60.74 63.14 60.81 59.89 57.99 53.69 55.82 52.46 51.31 55.13 57.35 58.67 59.43 58.80 56.87 60.57 61.41 62.28
55.82 55.55 54.80 54.68 54.99 55.29 55.27 55.06 54.87 54.99 54.12 54.22 53.88 53.57 53.45 52.97 52.16 51.35 54.55 54.67 52.26 52.57 48.96 54.57 55.85 57.06 61.15 61.14 57.37 59.77 62.77 56.86 56.79 53.31 54.82 53.35 50.53 54.64 57.46 57.53 57.65 58.12 58.02 57.93 59.55 61.55 61.90
55.37 55.39 55.42 55.30 55.55 55.53 55.10 54.79 54.56 54.36 54.05 53.76 53.51 53.37 53.01 52.21 51.35 56.05 53.44 55.46 56.84 55.29 49.34 52.15 55.30 54.74 55.93 57.57 56.11 57.07 60.65 57.25 55.17 53.65 52.84 51.24 52.49 55.14 56.14 56.15 56.21 57.01 57.45 58.10 57.04 62.19 62.95
55.81 55.58 55.52 55.55 55.49 55.41 54.85 54.70 54.27 54.09 53.88 53.63 53.51 53.16 52.54 51.06 51.62 53.95 53.78 57.17 56.88 55.39 47.00 50.99 52.89 54.70 56.12 56.56 53.23 58.96 61.04 58.04 55.38 53.37 53.36 52.73 55.03 53.59 54.48 54.62 56.68 54.50 58.88 58.60 58.00 57.82 55.98
55.83 55.56 55.52 55.60 55.39 54.92 54.36 54.11 53.94 53.84 53.45 53.47 53.61 52.99 51.84 50.08 51.44 52.47 53.96 56.05 55.67 54.80 42.04 54.32 54.57 59.61 57.47 54.54 56.57 55.73 60.05 58.96 54.32 54.01 54.48 51.98 52.43 52.63 52.53 54.44 57.29 55.83 59.34 58.81 58.75 57.32 58.20
56.10 55.93 55.54 55.46 55.15 54.72 54.09 53.72 53.69 53.59 53.34 53.12 52.97 52.43 51.58 52.55 54.50 55.69 56.36 56.01 53.98 46.67 42.39 51.60 55.11 53.97 54.26 54.74 56.13 57.27 56.08 59.77 58.60 55.47 55.10 54.32 56.41 54.64 54.34 56.10 56.96 58.32 57.88 58.75 58.44 57.27 52.32
56.11 55.99 55.73 55.33 55.04 54.48 53.84 53.57 53.57 53.32 52.89 52.54 51.74 51.02 50.81 52.82 50.58 56.38 55.31 52.09 44.19 42.29 52.53 50.97 52.11 54.04 54.18 53.88 54.73 55.35 53.18 53.24 52.46 50.12 50.82 53.00 53.41 54.66 55.47 53.22 56.03 55.86 55.21 51.04 50.22 50.68 50.51
55.89 55.93 55.87 55.52 54.89 54.35 53.86 53.69 53.45 52.60 52.46 52.03 50.51 49.08 52.92 54.66 56.90 56.66 52.88 46.34 40.23 47.67 49.12 53.43 53.41 54.10 51.77 54.00 54.08 54.42 52.92 50.97 54.29 53.99 51.76 49.45 47.86 53.12 54.50 53.30 52.94 53.83 54.39 51.05 46.95 48.22 50.85
55.81 55.76 55.64 55.45 55.06 54.53 54.08 53.67 53.04 52.58 52.34 51.45 49.39 53.44 53.11 55.24 56.76 55.40 49.58 40.13 43.26 47.64 51.57 51.24 52.57 50.79 51.70 52.62 52.95 53.85 53.41 52.05 53.32 54.61 51.03 50.77 50.29 55.10 54.92 54.85 54.05 53.33 52.15 56.30 53.17 54.38 51.82
55.42 54.90 54.49 54.48 54.25 54.02 53.78 53.53 52.87 52.70 52.36 51.10 50.10 51.36 52.35 56.14 57.16 53.34 45.74 41.34 46.41 49.50 51.36 51.01 48.55 51.53 49.92 51.47 51.11 51.91 52.65 54.78 53.32 55.08 56.22 53.85 50.47 54.67 54.47 55.21 54.11 53.16 56.16 51.45 53.65 49.01 48.79
54.11 54.02 54.14 53.86 53.82 53.76 53.55 53.39 52.85 52.48 51.82 50.99 49.85 46.80 54.83 57.31 56.27 49.79 42.69 44.24 46.67 49.24 49.50 48.16 48.27 49.72 51.07 51.15 52.27 51.54 51.57 54.50 55.35 54.98 55.69 54.34 53.17 52.57 54.80 52.33 51.08 50.99 51.64 53.88 54.03 53.33 49.95
53.71 53.85 53.54 53.76 53.63 53.26 52.69 52.99 52.54 51.82 50.67 49.85 49.36 43.56 54.96 56.25 46.22 47.23 44.45 47.15 47.59 49.24 50.75 48.64 48.77 49.26 50.21 51.48 51.14 52.20 51.69 53.49 56.25 55.89 53.01 54.89 53.08 50.45 52.25 55.14 55.36 53.87 51.91 52.99 53.26 51.67 53.21
53.06 53.08 53.12 53.47 53.39 52.81 52.85 53.01 52.23 51.18 51.11 49.77 45.84 47.48 53.20 52.11 40.67 42.38 46.30 46.65 48.12 47.59 48.56 48.38 46.69 48.42 50.21 49.78 49.56 51.79 52.61 55.41 55.19 54.78 54.38 55.21 52.25 48.87 50.54 53.18 54.93 52.21 52.91 52.87 53.44 54.91 54.30
52.40 52.37 52.49 52.63 52.81 52.40 52.43 52.47 51.96 51.34 51.07 49.16 45.65 42.28 47.75 49.03 48.68 44.16 43.43 44.41 44.97 49.74 47.82 48.65 48.13 48.96 47.56 47.36 50.86 49.97 51.05 53.76 54.96 54.23 62.14 58.58 53.09 51.14 48.56 51.24 53.31 51.14 51.51 52.45 52.10 51.33 52.87
52.24 52.28 52.13 51.99 51.98 51.76 51.65 52.10 51.77 51.03 50.52 46.83 45.62 43.34 44.29 41.49 43.40 43.29 44.74 45.11 43.13 43.18 47.92 50.27 48.00 47.78 46.91 45.46 46.75 47.46 50.22 52.70 53.89 58.38 55.57 54.69 51.78 52.98 52.79 53.94 54.02 52.09 50.97 50.96 50.73 52.34 51.15
52.21 52.19 52.19 52.05 51.78 51.67 51.74 51.68 51.43 50.81 50.26 44.59 40.64 42.70 45.65 43.50 44.33 42.30 41.53 41.81 40.76 42.18 44.25 44.13 45.34 47.92 48.85 46.73 47.90 46.84 49.39 51.15 51.63 53.88 52.96 54.94 51.53 53.91 52.48 53.79 53.68 52.40 51.67 51.20 51.27 51.86 52.69
51.68 51.73 51.98 52.08 52.06 51.73 51.69 52.02 51.62 51.02 49.64 44.76 47.96 47.86 43.18 41.00 41.28 39.91 39.56 41.83 41.68 43.47 44.85 46.33 44.90 44.92 46.08 49.22 51.69 53.32 54.24 53.43 53.48 53.43 53.19 53.27 51.95 51.19 48.90 52.86 52.66 49.63 52.85 53.08 52.84 53.25 52.48
51.07 51.07 51.41 51.79 51.69 51.75 51.89 51.96 51.77 51.45 50.03 49.24 45.62 44.45 40.67 37.74 40.27 40.23 39.88 39.79 39.91 42.36 41.35 43.84 44.17 41.93 47.05 51.44 52.98 54.25 53.98 54.30 53.64 52.87 54.29 53.10 53.22 52.67 49.74 51.99 44.76 53.34 56.74 55.74 54.33 55.27 55.90
51.11 50.92 50.88 51.18 51.51 51.49 51.55 51.87 51.95 51.74 50.94 49.07 48.23 44.16 40.44 37.53 38.68 40.62 41.07 40.74 40.67 43.39 42.27 41.83 43.33 46.62 49.00 49.15 48.34 47.42 47.51 48.47 51.63 53.06 53.31 55.08 53.61 49.98 48.05 48.44 52.27 53.40 55.55 55.08 54.24 54.47 57.59
50.92 50.97 50.69 50.92 51.37 51.41 51.60 51.63 51.88 51.58 51.27 51.43 51.04 48.73 41.73 36.73 38.48 41.80 40.57 40.34 38.68 39.76 42.34 43.38 47.04 49.48 49.45 45.93 43.85 41.66 41.02 45.78 45.72 49.32 54.63 55.00 56.43 52.61 50.40 46.64 45.06 53.09 59.09 61.39 60.09 52.43 59.11
50.69 50.55 50.67 50.63 50.94 51.29 51.58 51.79 51.74 51.40 51.10 50.58 50.28 51.52 43.66 36.68 42.27 42.93 39.61 38.61 42.29 41.26 40.67 43.22 45.31 45.35 48.58 43.16 41.26 42.22 42.49 48.30 44.58 44.84 47.19 49.80 51.49 49.22 51.00 49.43 51.98 59.26 60.61 60.75 51.64 54.07 63.21
51.06 50.68 50.61 50.37 50.69 51.12 51.18 51.20 50.99 50.75 50.74 50.39 48.37 50.72 43.84 39.07 40.39 45.07 45.77 43.08 42.17 42.22 38.90 42.70 44.24 44.85 45.58 42.98 43.85 44.41 44.99 47.03 47.08 50.89 50.26 49.29 49.20 48.82 50.92 49.04 45.42 60.26 59.92 55.94 60.51 64.51 65.30
51.03 51.14 50.86 50.80 50.61 50.69 50.66 50.37 50.10 50.10 50.39 50.69 46.39 52.12 50.68 43.03 41.29 48.41 47.79 47.63 48.34 47.92 45.03 44.98 43.97 41.62 44.04 43.30 43.88 44.28 45.60 48.49 49.67 45.08 54.59 49.13 53.01 51.00 52.86 53.06 61.64 62.35 62.49 63.11 62.80 62.22 64.79

GFSGBSN_sfc_wetblb_030.txt.gz
Wetbulb
57.05 56.61 56.34 56.21 56.64 56.35 55.75 55.61 55.38 55.29 55.20 55.30 55.46 55.54 55.71 56.02 55.97 56.08 56.27 56.47 56.48 56.12 56.07 56.78 57.75 58.54 59.76 56.83 57.06 64.14 73.51 74.13 69.52 65.05 62.43 62.51 61.71 62.05 60.00 62.19 62.83 62.62 62.40 65.15 63.73 63.19 63.90
56.41 56.33 56.12 55.99 56.15 55.87 55.49 55.55 55.33 55.01 54.76 54.78 54.85 55.18 55.55 55.85 55.96 56.04 56.18 55.81 55.85 55.67 55.88 56.87 58.14 58.42 57.93 50.51 61.16 64.57 64.16 65.80 63.24 63.12 62.54 63.96 62.17 62.63 61.14 61.38 60.15 61.16 64.23 63.70 63.05 62.94 64.37
56.33 56.18 55.86 55.88 55.72 55.68 55.30 55.13 55.33 54.89 54.82 54.79 55.00 55.26 55.11 55.25 55.45 55.27 55.54 55.25 55.37 55.39 56.03 57.64 60.07 58.95 56.25 54.51 62.66 65.19 63.51 64.17 63.62 63.05 60.26 61.87 63.43 60.30 61.43 58.23 60.89 60.47 60.44 62.22 62.22 62.52 62.61
56.86 56.11 55.98 55.81 55.78 55.48 55.20 54.83 55.05 55.31 55.11 55.29 55.13 55.07 55.11 55.13 55.23 55.00 54.50 54.38 54.46 55.03 56.84 60.05 60.71 59.90 54.14 60.29 62.46 61.27 61.89 61.76 63.99 63.98 62.05 61.91 61.31 58.90 58.22 60.03 58.66 57.01 59.29 57.82 61.30 61.52 62.75
57.25 56.99 56.47 55.98 55.76 55.81 55.38 55.09 54.81 55.33 55.22 54.98 54.80 54.76 54.86 54.75 54.58 53.97 53.42 53.53 55.12 56.99 59.25 61.07 60.67 60.89 56.34 65.62 60.51 62.02 61.44 59.00 60.21 60.53 62.72 62.16 60.27 56.48 57.19 54.77 53.76 56.07 54.19 56.81 58.40 62.15 62.21
56.92 56.90 56.60 55.64 55.58 55.93 55.94 55.69 55.41 55.10 55.04 55.02 54.52 54.26 54.38 54.33 53.80 53.11 52.70 53.74 58.07 58.27 61.13 63.62 63.35 59.56 61.87 58.42 61.25 61.27 61.35 60.03 57.89 58.81 58.34 58.36 56.81 53.93 53.70 53.42 48.76 52.05 54.68 56.58 57.63 60.94 61.17
56.26 56.23 55.99 55.48 55.29 55.83 55.79 55.53 55.28 55.12 54.73 54.61 54.32 53.99 53.86 53.47 53.07 52.16 51.72 56.51 57.31 56.53 59.63 59.27 58.74 56.52 57.88 62.21 62.99 61.44 60.92 58.53 59.09 57.63 52.75 55.93 52.21 50.56 52.24 54.53 55.65 55.58 56.71 56.21 59.43 59.94 59.96
56.20 56.29 56.30 56.00 55.97 55.80 55.38 55.23 54.91 54.69 54.44 54.50 53.97 53.73 53.71 53.26 52.51 51.89 53.22 54.75 54.41 53.92 48.36 53.08 54.55 58.58 61.91 62.24 57.90 59.46 62.12 57.77 56.53 52.95 54.52 53.26 50.00 53.19 55.01 55.46 55.60 55.54 55.55 57.06 59.77 61.41 61.19
56.93 56.55 56.25 55.87 55.78 55.79 55.37 54.73 54.52 54.17 54.15 53.98 53.82 53.49 53.26 52.78 51.91 54.49 54.69 53.38 58.57 56.30 48.34 50.48 53.27 52.75 56.12 60.86 57.65 57.89 59.73 57.78 54.77 52.77 53.02 50.69 52.19 54.18 53.62 53.83 54.42 54.91 55.01 56.61 57.32 60.64 61.16
56.87 56.40 56.16 56.04 55.85 55.73 55.28 54.71 54.17 53.88 53.92 53.81 53.55 53.22 52.70 51.60 52.56 52.71 52.87 57.50 56.63 55.65 44.86 49.34 52.66 53.62 54.85 56.06 53.59 59.94 60.88 58.22 54.51 52.77 53.59 52.61 54.42 52.78 51.94 52.52 54.86 52.37 57.04 57.37 58.11 57.51 54.07
56.92 56.65 56.36 56.26 55.95 55.62 55.17 54.96 54.21 53.84 53.85 53.48 53.44 53.16 51.94 51.26 49.78 51.32 55.58 56.59 56.16 53.73 39.61 54.14 54.19 59.63 56.65 52.91 54.99 54.68 59.63 58.67 53.46 53.05 53.81 51.81 52.11 51.81 50.75 51.77 55.39 54.47 57.92 57.14 57.16 56.53 57.73
56.65 56.53 56.28 56.12 56.32 55.88 55.09 54.49 54.06 53.67 53.67 53.16 53.05 52.60 51.98 52.05 53.03 54.65 56.56 56.02 54.26 44.47 40.12 51.92 55.09 53.49 52.72 53.27 53.36 56.79 54.86 57.79 58.50 54.08 54.29 53.73 56.26 53.89 53.28 53.95 55.14 57.17 56.29 56.48 56.67 55.68 51.81
56.38 56.32 56.24 56.25 56.06 55.69 55.16 54.57 54.20 53.79 53.30 52.66 52.09 51.10 50.73 52.19 49.15 55.13 55.52 52.27 43.01 40.56 52.77 51.22 52.55 54.17 53.27 51.29 51.64 54.91 52.37 51.63 51.50 50.02 49.66 52.55 52.79 54.92 54.96 52.22 54.45 54.65 53.36 49.72 49.02 50.12 49.22
56.16 56.01 55.78 55.57 55.39 55.22 54.92 54.45 54.06 53.53 53.20 52.36 50.49 49.54 51.70 53.99 56.14 55.90 53.58 45.82 38.87 47.20 47.17 54.39 54.04 53.88 51.32 53.52 52.03 52.26 53.04 50.06 52.83 53.31 50.58 48.57 47.40 52.45 54.99 52.50 51.61 52.29 52.68 50.39 45.77 47.77 50.23
55.44 55.36 55.54 55.15 54.72 54.19 54.17 54.10 53.59 53.24 52.69 51.66 49.96 53.09 52.99 54.47 56.50 55.63 48.62 39.65 42.42 46.86 51.30 51.29 52.59 50.95 51.65 52.99 53.69 52.76 52.85 51.57 52.33 53.65 50.54 50.13 49.39 54.99 54.78 55.01 53.61 51.78 50.21 54.39 51.36 52.91 50.84
54.45 54.68 54.87 54.70 54.15 54.10 54.08 53.79 53.36 53.20 52.48 51.22 48.79 49.91 52.58 57.01 56.78 53.38 45.09 40.17 45.62 48.91 50.61 50.75 47.68 50.98 49.55 51.95 51.69 52.22 52.48 54.71 52.54 54.35 55.79 53.24 49.47 54.04 54.74 55.33 54.31 52.56 54.90 49.25 50.50 46.72 46.81
53.90 54.05 54.25 53.94 53.88 54.00 53.90 53.71 53.32 53.07 52.13 50.82 48.93 47.65 53.28 56.68 55.79 49.51 41.29 43.03 46.19 49.53 49.76 47.12 46.02 46.14 48.06 50.45 52.28 51.73 51.72 54.52 55.63 54.17 54.94 53.64 52.73 51.85 54.79 52.65 50.94 50.81 49.60 51.03 51.98 51.94 48.75
53.76 53.63 53.55 53.53 53.59 53.57 53.43 53.51 53.01 52.26 50.99 49.22 48.40 42.01 54.50 56.43 45.86 46.59 43.21 46.17 46.96 48.35 50.81 49.49 49.80 48.21 46.83 47.94 49.79 51.43 51.79 53.44 56.76 56.37 52.76 54.17 52.24 50.07 51.10 55.51 55.64 53.42 51.86 51.20 47.92 50.26 51.93
53.66 53.64 53.62 53.37 53.18 53.01 53.22 53.01 52.70 51.76 51.35 48.84 44.04 45.65 52.59 51.98 40.71 41.86 45.41 45.16 46.79 47.07 47.90 48.21 47.90 49.49 49.93 47.21 46.58 49.39 51.85 55.98 56.39 55.47 54.20 55.94 51.30 48.29 48.99 52.12 55.03 52.65 52.62 51.59 50.98 51.07 51.42
53.14 53.10 53.45 53.37 53.14 52.99 52.93 52.53 51.98 51.47 51.34 48.46 43.67 40.11 46.25 48.51 48.05 44.00 42.54 43.71 43.91 48.14 47.31 49.08 48.94 49.85 48.46 47.34 49.23 48.48 49.54 53.14 55.50 55.96 62.75 58.79 52.60 50.82 47.58 50.55 52.90 52.11 52.16 52.57 50.98 48.40 49.71
52.34 52.38 52.44 52.66 52.75 52.70 52.81 52.26 51.73 51.23 50.89 48.20 43.96 41.51 45.02 39.37 41.90 44.27 42.84 41.71 40.65 42.38 47.70 48.97 47.12 47.62 44.97 44.62 45.75 45.86 48.63 50.37 53.17 59.80 55.85 54.85 50.98 52.01 52.35 51.98 53.02 52.65 52.18 51.68 51.10 52.12 49.98
52.18 52.23 51.98 51.94 51.77 52.14 52.43 52.64 52.14 51.27 50.77 46.52 39.53 40.48 44.63 41.84 43.18 40.88 40.09 39.78 39.48 41.43 40.90 40.73 43.17 45.52 46.14 44.18 45.93 41.46 46.11 49.80 50.85 54.20 53.53 55.36 51.43 51.97 50.46 52.08 52.01 51.42 52.92 52.98 52.95 52.45 52.38
51.99 51.83 51.49 51.50 51.41 51.62 51.91 52.26 52.20 51.61 49.52 45.73 47.09 46.50 43.36 39.89 40.31 39.67 39.88 40.78 39.86 41.44 43.35 45.34 43.03 41.55 41.97 43.73 46.88 47.82 49.03 49.74 51.24 52.79 54.24 53.83 51.89 51.63 48.14 51.90 51.41 48.68 52.82 53.41 53.02 54.05 53.09
51.91 51.66 51.56 51.35 51.52 51.43 51.79 51.96 51.93 52.21 50.57 50.16 48.21 46.28 39.23 33.87 38.30 38.97 40.64 41.06 40.95 40.87 39.19 43.90 44.11 41.27 44.61 48.19 48.90 50.80 51.33 51.66 51.91 52.33 52.81 54.57 52.95 52.00 49.05 51.44 44.30 52.58 56.06 55.48 54.47 54.44 54.19
52.06 51.55 51.45 51.24 51.26 51.31 51.56 51.96 51.92 51.99 51.86 49.80 50.06 45.41 39.40 34.50 39.53 39.27 40.25 40.42 41.23 42.63 40.82 42.63 44.76 46.47 47.44 45.92 41.37 41.09 45.95 47.55 49.36 51.75 52.01 55.15 54.08 49.16 47.80 47.27 50.17 52.43 54.78 54.40 53.62 54.76 57.25
52.29 52.04 51.43 51.30 51.24 51.20 51.53 51.83 51.88 52.34 51.99 51.48 51.17 51.20 42.58 36.41 36.70 41.54 39.57 41.35 37.53 39.17 41.63 44.15 48.67 50.27 47.63 42.98 39.14 36.18 37.86 43.82 44.21 47.81 52.93 52.71 56.49 51.41 49.65 45.65 43.78 53.13 55.57 58.18 57.86 52.15 59.59
51.83 51.80 51.66 51.43 51.05 51.06 51.41 51.86 51.85 51.92 51.85 50.80 50.42 51.79 44.46 36.45 40.72 42.54 39.54 39.40 42.47 41.40 38.37 41.68 43.72 45.80 48.59 40.94 36.64 35.09 36.86 46.48 42.46 44.93 47.97 48.61 50.63 48.05 48.06 47.25 49.73 55.80 57.50 60.63 51.81 55.12 63.58
51.74 51.68 51.38 51.30 51.28 51.13 51.18 51.20 51.08 51.00 51.06 50.73 49.66 52.17 46.99 38.56 40.73 44.13 44.88 42.07 42.44 42.17 37.07 41.57 40.67 44.62 44.24 40.10 38.82 38.91 39.97 44.50 44.79 48.14 47.51 47.72 47.37 47.05 49.35 48.11 45.66 59.42 59.84 55.39 61.99 65.11 64.91
51.77 51.80 51.61 51.00 50.96 51.01 50.83 50.56 50.34 50.36 50.63 50.68 47.69 53.35 50.76 42.95 41.99 46.96 47.80 48.82 48.15 47.01 43.22 43.95 41.61 40.97 44.22 42.14 43.97 43.92 42.12 45.15 46.58 42.02 51.20 45.52 49.82 49.16 51.63 52.24 59.97 59.71 62.99 64.38 64.12 63.67 64.66

GFSGBSN_sfc_wetblb_033.txt.gz
Wetbulb
56.97 56.52 56.55 56.51 56.21 56.91 56.46 55.74 55.68 56.08 55.43 55.39 55.39 55.33 55.34 55.36 55.53 55.71 56.15 56.33 56.46 56.38 55.85 56.45 57.26 58.17 56.59 53.31 53.46 61.10 73.12 74.79 71.32 66.40 60.88 58.28 55.29 56.73 56.38 58.94 61.69 59.36 59.89 61.55 62.56 62.40 61.89
56.88 56.80 56.56 55.95 56.28 56.32 56.02 55.48 55.36 55.61 55.51 55.29 55.61 55.78 55.72 55.66 55.88 56.09 56.21 55.84 55.80 55.75 55.64 56.36 57.63 58.49 54.63 46.25 55.64 58.05 65.68 67.18 64.94 61.57 58.78 58.49 57.49 59.47 58.10 58.21 60.03 62.86 61.60 62.12 62.73 61.77 61.98
57.29 56.89 56.52 56.14 55.84 55.83 55.72 55.49 55.14 54.99 55.04 55.35 55.67 55.61 55.32 55.51 55.68 55.76 55.61 55.17 55.48 55.36 55.32 56.63 58.12 58.44 53.94 50.23 57.74 61.64 62.10 61.86 62.98 60.35 57.47 59.34 60.49 59.18 58.05 56.13 59.24 58.47 58.94 61.76 61.39 60.26 60.68
57.48 57.56 56.96 56.68 56.34 56.19 55.62 55.44 55.23 55.15 55.07 54.96 55.32 55.40 55.12 55.00 55.16 55.12 54.76 54.45 54.56 55.18 56.18 57.45 59.63 57.21 49.93 57.95 58.24 57.23 57.09 59.65 62.90 60.22 59.37 59.62 60.26 57.34 55.12 55.20 54.64 53.40 51.95 49.53 59.14 58.85 61.16
57.06 56.89 56.77 56.59 56.31 56.14 56.14 56.14 55.78 55.58 55.46 54.99 54.95 55.01 54.93 54.60 54.29 53.98 53.62 53.73 55.35 57.16 57.94 60.16 57.54 54.80 52.72 63.96 57.50 58.13 57.40 56.56 58.10 59.83 59.16 61.48 57.29 53.49 53.21 49.77 47.25 48.79 46.16 48.70 56.44 60.15 60.52
57.25 57.11 56.88 56.52 56.29 56.37 56.13 55.74 55.36 55.30 54.91 54.74 54.72 54.37 54.31 54.12 53.75 52.88 52.88 53.80 56.04 58.06 58.55 61.33 60.70 53.99 58.97 55.90 58.66 59.46 59.21 58.52 56.55 56.25 54.71 54.46 52.84 49.85 48.91 46.36 42.21 45.07 46.26 49.32 54.41 57.83 60.16
57.50 57.28 56.90 56.47 56.39 55.92 56.09 55.81 55.14 54.95 54.71 54.60 54.41 54.04 53.83 53.46 52.92 52.21 50.46 48.38 50.77 50.18 55.41 55.78 54.85 55.58 54.85 58.90 61.12 59.20 59.45 56.61 54.56 51.38 47.98 51.67 47.53 46.19 47.81 49.01 50.06 50.60 49.91 49.68 55.84 59.65 58.37
57.35 57.25 57.08 56.75 56.35 56.21 55.98 55.64 55.29 54.96 54.62 54.45 54.12 53.75 53.60 53.19 52.52 51.65 50.43 48.96 50.68 50.99 45.98 51.13 51.32 53.79 58.89 59.50 56.69 58.32 58.75 52.33 50.76 47.42 49.86 48.80 46.40 50.36 52.40 51.93 50.48 50.28 49.33 49.81 57.78 59.59 57.59
57.37 57.33 56.96 56.65 56.37 56.32 56.22 55.71 55.32 54.89 54.40 54.24 53.97 53.33 53.12 52.61 51.56 51.87 48.31 48.90 53.41 52.42 43.77 46.89 49.80 49.66 50.37 53.35 53.17 56.06 56.31 53.13 50.67 48.87 50.01 47.38 48.43 53.07 51.79 50.18 49.69 49.54 48.57 50.15 55.44 58.63 58.96
57.19 56.77 56.50 56.48 56.24 56.12 56.03 55.86 55.22 54.60 54.38 54.05 53.78 53.14 52.71 51.70 50.07 48.10 48.61 54.96 54.71 52.87 38.73 44.74 47.61 50.02 50.87 51.42 50.92 58.38 58.45 55.53 53.14 50.11 50.93 49.21 52.23 51.77 50.21 48.68 50.12 46.61 52.55 53.59 56.38 54.51 49.69
56.87 56.58 56.40 56.26 56.08 56.05 55.86 55.64 55.11 54.78 54.32 53.95 53.78 53.12 52.01 51.34 46.82 46.84 52.18 54.00 53.53 50.17 32.63 51.43 50.48 54.96 51.28 48.31 52.16 54.55 60.08 55.73 51.41 50.76 49.84 48.20 50.28 49.69 48.64 49.08 50.71 49.01 53.82 53.34 52.96 53.10 53.72
56.52 56.48 56.35 56.24 56.07 55.74 55.42 54.83 54.56 54.38 54.03 53.72 53.48 52.67 51.83 49.06 48.37 50.38 52.64 52.84 50.92 38.25 33.89 47.92 52.50 49.22 47.73 48.46 49.95 53.26 55.00 55.85 56.08 51.84 50.89 50.49 54.16 52.18 50.56 51.80 51.34 52.24 51.52 51.61 51.39 50.24 44.55
56.19 56.12 55.80 55.73 55.82 55.38 54.56 54.15 54.13 53.82 53.35 53.15 52.17 50.95 49.91 50.19 44.60 52.04 51.34 49.01 36.49 34.08 49.12 49.02 48.75 50.66 48.44 46.27 47.72 49.03 49.35 49.06 47.52 45.76 45.76 48.91 49.86 52.34 53.36 48.26 50.19 49.40 45.73 42.77 41.82 43.18 41.68
55.40 55.13 54.82 54.88 54.75 54.79 54.26 54.09 53.97 53.66 53.25 52.72 50.92 49.42 49.95 51.85 52.76 51.41 49.23 41.25 32.90 44.26 43.73 49.80 50.07 51.44 48.18 49.74 47.75 48.20 46.93 46.33 49.62 48.91 45.95 44.45 42.80 49.50 52.56 49.51 46.26 46.77 45.59 42.77 36.28 40.51 43.64
55.13 54.70 54.53 54.43 54.24 54.07 54.15 53.97 53.58 53.38 52.93 51.99 50.07 48.34 48.10 51.18 53.70 52.06 44.97 35.25 37.74 42.90 47.16 45.62 45.82 45.52 47.81 50.84 50.13 47.94 47.02 47.15 48.60 49.49 44.85 44.83 45.27 52.34 52.57 52.81 50.14 45.56 44.52 47.70 42.06 45.71 42.67
54.31 54.39 54.43 54.18 53.89 53.82 53.82 53.66 53.33 53.19 52.78 51.45 46.48 45.29 46.69 53.52 55.21 49.98 41.97 36.68 41.49 46.55 46.27 44.78 39.57 44.75 41.90 43.80 44.87 48.39 46.74 49.46 49.88 50.96 50.93 48.18 43.05 50.66 52.37 52.88 51.70 48.18 47.87 43.50 44.96 38.65 39.25
54.12 54.26 54.24 53.95 53.76 53.54 53.46 53.33 53.00 52.84 52.23 50.99 45.69 42.84 49.61 52.68 52.72 46.50 37.32 39.10 42.84 47.05 47.30 44.12 43.13 42.44 43.08 43.06 44.23 43.64 45.97 51.01 52.33 51.87 51.65 49.36 47.20 47.68 51.28 48.55 47.15 45.76 45.68 44.27 44.28 45.33 39.93
53.87 53.77 53.78 53.76 53.54 53.56 53.50 53.27 52.53 52.15 51.01 48.41 44.05 36.81 49.83 51.30 41.36 43.64 39.70 42.94 44.49 45.09 47.55 45.83 46.17 44.60 43.43 44.45 43.10 43.90 43.59 46.39 54.01 54.39 49.28 50.49 47.39 44.08 46.66 51.88 52.47 50.54 46.43 44.09 41.98 38.53 42.85
53.58 53.54 53.42 53.44 53.35 53.43 53.37 53.02 52.40 51.59 51.12 46.41 39.68 40.35 48.62 48.07 35.03 37.86 42.54 43.10 44.40 43.46 44.27 44.03 43.37 45.59 46.55 43.97 41.17 44.79 46.33 50.33 50.76 49.60 51.62 50.83 47.35 41.62 43.75 47.53 50.78 48.51 49.30 47.35 45.97 42.63 41.98
52.80 52.72 52.66 52.80 52.69 52.92 53.06 52.82 51.96 51.37 51.20 47.02 41.23 34.78 42.00 44.68 43.90 40.34 38.54 39.78 40.13 45.17 43.38 44.78 42.61 45.28 44.73 43.23 45.72 43.34 45.13 49.55 50.61 49.90 59.43 56.79 48.60 45.41 42.13 44.71 47.24 46.76 48.85 49.07 46.51 42.88 41.32
51.93 51.99 52.63 52.71 52.30 52.42 52.48 52.50 52.07 51.40 50.94 47.23 42.62 37.05 40.53 34.38 37.81 38.18 39.79 38.66 37.14 36.89 42.73 43.42 40.61 41.05 40.54 38.85 40.95 41.89 45.17 44.46 47.86 52.02 51.21 46.53 44.67 48.03 48.10 49.60 50.08 49.22 49.61 49.24 46.89 46.69 43.12
52.30 52.71 52.63 52.57 52.27 52.22 52.25 52.09 52.29 51.48 51.07 45.59 39.27 37.61 40.02 37.13 38.77 37.30 37.86 37.23 36.69 38.57 39.58 37.86 37.89 40.80 41.46 38.11 39.32 36.59 39.47 40.22 40.83 45.92 43.89 44.78 44.57 47.90 46.39 49.78 49.27 48.01 49.80 49.95 49.42 49.06 48.07
52.21 52.63 52.23 52.03 52.21 51.90 51.88 52.23 52.13 51.64 49.63 44.01 46.06 46.15 41.45 37.04 36.29 35.02 35.43 37.49 37.49 39.74 40.94 42.24 40.85 39.39 38.34 40.88 43.04 43.08 43.45 43.20 43.17 41.67 41.95 42.23 42.38 44.04 41.92 47.83 47.14 44.30 47.88 48.96 50.35 51.22 50.07
52.79 52.88 52.46 52.38 52.22 51.91 51.64 51.74 52.05 51.95 50.50 47.00 45.90 45.36 38.55 32.43 34.91 35.19 36.88 38.06 37.74 39.21 37.94 40.90 42.08 39.37 42.66 47.25 45.70 45.25 45.50 45.85 46.72 47.01 48.03 43.66 43.14 45.32 41.28 44.73 39.25 46.56 51.66 52.12 51.03 52.49 52.11
52.63 52.86 52.13 52.38 52.15 51.84 51.82 51.60 51.93 52.27 51.72 48.48 48.22 44.14 39.47 33.91 35.60 35.90 36.87 37.58 39.15 40.65 39.16 40.23 42.87 45.21 45.68 44.39 39.26 36.70 40.38 42.38 44.67 47.83 47.33 48.55 44.80 42.97 41.27 41.29 43.68 49.34 51.30 50.87 48.39 49.22 53.99
52.44 52.54 52.48 51.94 51.94 51.65 51.62 51.72 51.96 52.36 52.09 50.55 49.14 48.75 43.09 36.11 34.17 38.68 37.03 37.98 35.30 36.40 38.11 40.50 44.86 47.06 46.47 39.83 38.78 32.39 33.19 37.30 40.50 44.01 48.34 48.17 48.04 45.51 40.99 38.92 38.35 46.38 53.25 55.35 53.83 45.95 57.66
52.28 52.42 52.65 51.73 51.65 51.63 51.72 51.76 51.75 51.74 51.88 50.72 49.03 50.11 44.07 36.51 38.69 38.90 35.75 36.56 39.72 38.80 36.31 38.94 41.41 40.62 44.87 39.66 35.12 33.12 32.50 39.09 36.05 40.17 41.37 42.75 44.17 43.65 42.23 39.81 43.38 51.61 53.97 54.87 46.33 47.62 59.99
52.20 52.40 52.25 52.00 51.50 51.53 51.50 51.61 51.41 51.12 51.12 50.50 47.73 51.01 45.65 38.35 38.95 41.29 41.81 39.14 39.73 39.49 34.95 39.63 38.75 39.50 39.05 37.74 36.24 36.88 35.29 38.29 39.23 43.96 42.83 42.63 41.10 42.96 43.05 40.65 39.55 57.84 54.92 53.17 57.38 60.21 61.02
52.03 52.13 51.88 51.61 51.44 51.09 51.01 51.06 50.85 50.89 50.74 50.59 46.36 51.53 50.74 43.54 41.37 45.41 44.91 45.99 44.48 44.51 41.32 41.29 39.89 39.36 41.00 39.60 39.78 38.42 39.10 41.95 41.74 39.63 47.44 41.85 46.75 45.01 46.41 46.31 55.86 58.04 58.18 59.16 59.88 60.62 60.28

GFSGBSN_sfc_wetblb_036.txt.gz
Wetbulb
57.63 57.47 57.16 56.86 57.02 56.74 56.25 56.20 56.07 56.02 55.66 55.62 55.39 55.34 55.41 55.54 55.41 55.37 55.59 55.87 55.89 55.55 55.62 56.06 56.57 57.83 54.83 50.62 50.67 54.98 72.39 74.38 69.69 65.81 60.89 58.60 53.54 52.13 52.21 56.21 61.26 59.01 61.13 62.61 63.67 62.93 61.60
56.82 56.76 56.59 56.71 56.49 56.26 56.11 55.83 55.82 55.84 55.77 55.60 55.76 55.91 55.81 55.75 56.02 56.17 56.04 55.69 55.68 55.57 55.31 55.98 56.56 57.57 52.08 41.72 52.55 56.19 63.20 65.84 64.76 61.26 59.72 57.96 55.27 54.96 53.95 56.29 60.00 61.43 61.00 61.62 62.98 61.88 61.46
57.07 56.81 56.39 56.24 56.40 56.02 55.84 55.74 55.56 55.56 55.65 55.43 55.64 55.56 55.46 55.44 55.60 55.62 55.44 55.16 55.18 55.44 55.38 56.35 56.60 56.96 52.75 47.35 54.48 55.99 60.82 59.74 62.34 59.36 56.09 58.24 58.37 55.19 55.58 53.54 61.08 61.73 56.45 60.52 61.38 61.10 60.41
57.83 57.45 57.02 56.92 56.87 56.32 56.11 55.72 55.78 55.78 55.66 55.33 55.33 55.29 55.25 55.18 55.10 54.95 54.56 54.29 54.77 55.50 56.98 57.43 57.87 56.37 47.54 57.29 56.49 54.82 54.24 54.10 60.82 60.30 58.67 57.72 58.08 55.42 53.57 54.83 52.78 48.78 52.48 51.19 59.18 60.87 60.43
58.06 57.71 57.56 57.28 57.05 56.86 56.45 56.36 56.15 55.74 55.55 55.12 55.04 55.06 54.75 54.59 54.44 54.07 53.44 53.79 54.89 56.67 58.61 58.75 55.75 51.96 48.07 62.07 56.16 56.11 55.03 54.43 56.81 58.06 56.38 60.92 56.37 52.95 51.98 48.08 44.44 44.81 41.91 45.57 48.76 58.36 60.26
58.11 57.59 57.58 57.36 57.01 56.81 56.58 56.43 56.27 55.83 55.68 55.22 54.85 54.72 54.33 54.03 53.61 53.03 52.74 53.39 54.47 55.92 58.43 60.31 59.45 50.65 52.90 53.78 58.73 57.00 54.90 55.61 53.59 56.90 56.02 53.59 51.04 47.20 44.75 43.15 39.25 41.61 42.53 43.59 48.72 58.41 59.38
58.13 57.90 57.57 57.21 56.97 56.74 56.60 56.53 56.51 56.12 55.78 55.24 54.80 54.31 54.20 53.53 52.82 52.22 50.19 46.14 45.99 45.41 52.14 51.62 52.19 53.18 53.92 56.95 58.89 57.42 56.69 54.44 52.44 50.85 47.55 48.08 45.15 45.11 45.68 46.02 46.92 46.59 45.71 45.28 49.65 56.90 57.59
57.20 57.03 56.95 57.10 56.77 56.55 56.39 56.24 56.22 56.00 55.37 54.98 54.57 54.22 53.83 53.03 52.35 51.49 48.74 45.75 47.36 47.71 40.81 48.97 51.32 52.56 56.34 56.01 54.10 57.13 56.78 51.64 49.22 45.17 46.18 44.87 43.42 47.86 49.96 49.07 47.67 46.97 45.70 45.58 54.87 58.70 57.42
57.04 57.06 56.89 56.75 56.65 56.30 56.20 55.85 55.57 54.98 54.88 54.65 54.30 53.95 53.40 52.68 51.56 48.06 44.66 45.48 50.81 49.01 39.76 44.37 48.54 48.75 48.97 52.58 50.26 51.64 54.14 51.15 48.56 45.00 45.64 43.77 45.84 50.95 49.90 48.49 47.53 46.20 45.14 45.50 47.58 56.45 57.19
57.16 56.61 56.57 56.37 56.12 56.14 55.87 55.57 54.58 54.37 54.47 54.24 53.85 53.63 52.89 51.46 45.06 45.65 46.21 50.04 50.91 49.94 35.12 41.07 43.59 47.02 48.57 49.14 45.93 53.73 56.27 52.45 48.07 46.33 45.75 44.98 49.40 49.54 48.51 47.56 48.34 43.04 49.57 49.51 49.90 50.49 48.58
56.89 56.33 56.00 55.70 55.64 55.55 55.57 55.16 54.39 54.26 54.14 54.14 53.83 53.28 52.19 51.33 44.17 44.06 48.34 49.40 50.24 43.58 32.24 49.11 47.32 51.30 47.79 46.40 48.99 50.52 55.77 51.91 47.89 48.31 46.94 45.74 48.32 48.09 47.06 47.86 49.83 46.20 49.94 49.02 49.80 50.40 48.14
55.92 55.63 55.46 55.18 55.07 55.00 54.88 54.47 54.10 54.08 53.93 53.85 53.44 52.87 52.05 46.72 43.96 46.26 48.45 48.08 44.44 36.04 31.36 43.92 49.51 45.54 44.81 45.05 47.48 52.79 53.04 54.16 53.47 50.28 49.25 48.89 52.13 50.55 49.65 50.82 50.98 51.07 47.37 46.61 45.86 46.41 44.29
55.28 55.06 54.55 54.75 54.80 54.47 54.22 54.14 54.06 53.87 53.55 53.30 52.60 51.34 50.23 49.43 41.78 46.40 47.68 43.88 33.20 30.10 44.51 45.71 43.24 44.78 43.58 42.42 45.45 47.12 50.60 49.39 47.17 43.46 44.27 47.13 48.23 49.99 51.14 46.92 48.51 47.72 40.34 36.98 36.99 37.44 39.12
54.31 54.81 54.76 54.47 54.37 54.22 54.06 54.04 53.95 53.53 53.26 52.59 50.90 49.89 48.47 48.23 46.85 47.14 44.50 36.62 28.07 39.73 40.80 45.11 44.04 46.08 43.44 43.70 43.29 45.00 44.23 47.91 49.93 44.97 44.13 41.84 40.74 47.42 49.99 48.71 45.97 43.17 43.80 38.70 32.07 34.32 37.82
54.34 54.72 54.56 54.37 54.22 54.14 53.97 53.77 53.30 53.12 52.71 51.73 50.06 44.04 44.13 43.51 48.29 46.36 38.34 29.56 31.29 38.11 42.39 41.53 42.14 41.26 40.74 45.44 43.89 43.50 43.13 44.12 49.75 47.31 42.57 40.92 42.56 49.99 50.88 50.70 49.81 44.08 40.94 43.97 37.73 39.47 37.87
54.40 54.17 54.09 54.02 54.06 53.95 53.95 53.59 53.26 52.93 52.17 50.96 45.32 40.67 42.03 47.62 48.23 43.47 34.79 32.88 35.69 42.71 43.75 43.27 36.90 41.28 37.54 40.12 41.19 41.32 40.92 45.85 45.75 48.78 47.92 43.93 39.31 47.48 50.95 49.99 50.23 47.90 44.93 40.22 35.67 34.35 34.98
53.87 53.59 53.79 53.83 53.63 53.57 53.69 53.56 53.10 52.73 51.72 50.49 41.95 36.57 43.71 46.41 44.29 38.82 32.61 33.20 39.68 44.28 44.94 40.76 38.82 37.62 38.93 39.05 40.18 39.63 40.98 45.67 47.72 47.94 49.28 48.05 43.06 43.79 46.66 46.63 45.84 44.64 42.63 41.04 40.91 39.58 38.03
52.90 53.32 53.28 53.26 53.11 53.03 53.24 53.28 52.74 51.79 50.50 46.10 38.17 31.78 43.37 47.21 32.70 33.99 35.13 37.72 42.31 41.96 45.03 42.81 42.96 41.47 39.56 39.83 38.68 39.43 40.42 43.86 49.34 48.00 43.33 45.60 43.52 41.55 44.05 48.02 49.98 49.41 46.31 42.96 41.33 36.06 38.05
52.93 53.01 53.14 53.03 53.05 53.11 53.13 52.78 52.12 51.23 50.65 42.18 35.44 35.00 43.31 40.84 28.87 31.99 38.41 39.73 41.99 41.72 41.55 41.00 40.19 41.56 41.60 38.66 36.45 40.92 43.22 48.46 47.00 46.65 43.37 45.31 42.92 38.93 38.56 43.34 47.21 44.92 46.56 46.56 39.10 38.88 40.98
52.83 52.58 52.79 52.82 52.93 53.01 52.97 52.53 51.82 51.13 50.61 42.75 36.10 30.92 34.30 36.88 40.85 34.74 34.40 36.48 36.72 42.58 41.34 42.32 40.16 41.24 39.53 37.69 39.97 38.54 40.60 45.02 45.46 45.50 52.06 46.64 40.92 40.87 40.69 41.37 44.39 42.56 47.08 46.24 44.63 40.57 40.28
52.41 52.35 52.64 53.17 52.58 52.84 52.86 52.53 51.75 51.12 50.59 42.77 37.04 33.30 33.85 30.82 33.53 35.29 36.43 35.30 34.98 34.76 40.36 40.74 37.25 38.76 38.15 34.00 36.37 37.73 39.91 40.26 43.51 47.51 44.17 40.15 34.80 39.44 41.99 46.49 47.18 46.59 47.01 47.53 44.29 44.99 42.54
52.57 52.99 53.36 53.54 53.30 52.91 52.99 52.55 51.95 51.39 50.68 43.91 37.94 35.67 35.80 33.37 33.62 33.72 34.33 33.91 34.79 36.28 37.70 36.21 36.58 38.57 39.48 35.74 37.01 34.80 37.26 36.98 36.08 41.01 39.24 39.33 35.12 38.91 42.15 46.30 47.21 46.00 47.62 48.42 47.43 47.17 45.95
52.43 52.58 53.11 53.30 53.38 52.97 52.41 52.57 52.20 51.24 48.72 42.42 44.46 44.81 40.11 35.60 31.79 31.17 29.71 33.55 34.68 36.99 39.55 40.31 39.32 37.76 35.86 37.98 40.74 41.35 41.13 40.94 39.46 37.12 36.08 36.83 35.32 35.92 35.44 44.43 45.45 42.74 46.97 47.47 47.42 47.84 46.65
52.95 52.68 52.54 52.43 52.81 52.52 52.31 52.21 52.26 51.73 49.94 45.98 42.32 42.78 36.72 32.60 33.89 32.84 34.12 35.13 35.17 36.34 35.25 38.70 39.05 36.47 40.09 45.24 43.61 42.59 41.41 39.99 40.27 40.36 41.74 38.19 36.40 36.24 35.36 38.71 36.68 44.93 50.30 50.52 47.35 48.38 49.14
52.53 52.28 52.28 52.27 52.31 52.21 52.15 52.15 52.34 52.30 51.33 46.66 44.67 43.62 39.34 33.61 35.38 34.45 34.57 34.90 36.48 36.26 35.00 37.47 40.14 40.66 42.98 41.22 35.65 32.49 34.16 35.32 39.09 41.20 41.92 43.62 41.46 35.86 34.33 35.25 41.13 46.69 48.72 47.67 46.36 47.04 50.84
51.72 52.49 52.26 51.97 51.90 51.98 52.11 52.17 52.15 52.35 51.55 46.66 45.96 47.83 43.04 35.50 33.61 37.87 35.48 35.34 31.51 31.33 33.94 37.35 41.45 42.89 42.19 38.28 35.51 28.85 28.13 33.25 37.12 41.79 45.21 45.25 45.54 41.24 38.30 34.97 35.58 43.02 50.54 52.65 51.12 43.01 54.25
51.36 51.68 51.78 51.72 51.68 51.60 51.76 51.96 51.86 51.68 51.51 45.54 44.24 46.95 43.57 37.23 38.27 38.38 34.26 32.33 35.55 32.84 31.07 34.52 37.19 38.30 40.16 36.20 33.73 30.65 29.38 36.30 32.00 36.87 40.09 41.61 41.43 38.73 39.58 38.95 40.55 47.99 51.36 51.76 43.27 43.72 56.95
51.68 51.80 52.05 51.57 51.38 51.37 51.33 51.32 51.52 51.35 51.25 46.35 43.39 45.25 43.34 39.60 39.29 41.27 40.44 37.08 37.36 36.79 33.11 35.01 35.75 37.81 36.91 35.56 35.72 35.09 31.61 33.61 34.90 40.46 41.79 41.07 40.68 40.78 41.47 38.72 36.12 52.88 53.49 45.31 49.07 57.28 57.55
52.17 52.16 52.27 52.29 52.05 51.64 51.70 51.39 51.21 51.08 50.91 50.25 42.26 45.25 47.28 42.37 40.18 43.05 43.19 44.06 42.69 41.62 36.43 35.50 34.73 37.87 39.16 34.60 36.22 35.74 34.96 38.52 35.51 36.15 46.11 39.99 44.80 43.25 44.71 45.44 50.61 53.30 51.37 53.54 58.51 57.22 57.98

GFSGBSN_sfc_wetblb_042.txt.gz
Wetbulb
57.70 57.37 57.05 57.11 56.91 56.92 56.30 55.87 56.10 56.38 56.50 56.21 55.84 55.80 55.69 55.50 55.60 55.51 55.69 55.46 55.57 55.15 55.45 55.77 56.17 56.42 52.63 46.11 45.79 67.79 72.76 70.88 73.97 68.03 67.21 65.74 63.41 61.00 56.24 58.39 60.02 58.50 60.15 61.30 62.37 60.55 63.46
57.76 57.50 57.40 57.26 56.97 56.52 56.33 56.02 55.79 56.15 56.50 56.12 55.88 55.97 55.96 55.60 55.56 55.72 55.97 55.76 55.64 54.96 55.12 55.82 56.33 56.13 47.58 37.22 48.28 53.25 64.57 67.01 70.18 64.46 64.78 63.51 64.70 61.11 52.69 51.24 57.68 59.97 60.23 60.51 61.14 60.71 61.41
57.93 57.45 57.15 56.98 56.81 56.63 56.50 56.34 56.17 55.81 55.72 55.81 55.76 55.81 55.73 55.77 55.18 55.65 55.61 55.20 54.67 54.66 55.34 56.37 56.53 54.10 50.48 42.42 50.76 53.24 63.94 61.86 66.20 61.50 58.59 57.47 59.01 60.28 53.13 48.48 54.90 58.18 54.32 56.60 59.58 59.09 59.08
57.40 57.03 56.97 56.77 56.66 56.42 56.06 55.94 55.70 55.81 55.75 55.67 55.10 55.14 55.42 55.46 55.26 55.08 54.54 54.10 54.48 55.58 56.95 57.40 57.49 52.47 42.39 52.69 54.13 52.61 57.27 57.67 62.08 59.36 55.22 56.87 56.54 58.73 50.52 51.53 51.01 50.83 52.63 48.41 54.27 56.37 58.96
57.26 57.03 56.89 56.73 56.58 56.22 56.18 56.04 55.52 55.62 55.26 55.11 55.21 55.01 55.05 55.01 54.50 54.00 53.18 54.04 55.46 58.63 59.08 58.81 52.02 49.24 42.86 57.47 53.85 53.13 51.54 51.67 58.47 56.20 55.42 59.62 55.04 49.86 49.73 46.15 43.24 42.44 40.88 44.12 47.43 54.10 55.65
56.85 56.80 56.43 55.73 55.58 55.89 55.84 55.74 55.59 55.49 55.13 54.96 54.76 54.53 54.31 54.19 53.92 52.84 52.66 53.56 54.48 57.89 57.10 56.95 56.30 47.10 49.81 49.44 55.21 55.11 51.44 52.08 51.02 54.38 54.32 52.49 48.41 45.41 42.90 42.20 38.65 40.59 40.28 41.35 45.14 51.09 55.18
56.52 55.86 55.39 55.19 54.60 54.96 55.13 55.19 55.07 55.09 54.94 54.76 54.57 54.20 53.96 53.42 52.87 51.95 50.08 44.49 42.23 41.80 42.75 48.78 48.52 48.69 51.01 52.90 55.11 53.48 52.46 51.21 52.35 50.30 45.73 48.19 44.13 41.02 44.16 44.34 45.20 45.90 43.40 44.05 46.05 49.17 52.94
55.93 55.32 54.80 54.75 54.29 54.57 54.63 54.54 54.55 54.45 54.41 54.41 54.18 53.77 53.55 52.97 51.97 51.58 44.87 42.42 42.34 41.93 36.92 45.16 44.60 46.14 51.46 49.96 48.58 51.10 52.43 47.46 47.08 44.01 46.63 42.36 43.31 47.22 47.95 46.95 45.94 44.33 42.64 42.48 45.17 48.54 50.55
55.37 54.53 54.41 54.51 54.53 54.38 54.23 54.14 54.28 54.12 54.10 53.91 53.63 53.24 52.76 52.05 51.48 45.17 42.43 43.14 45.74 41.95 34.89 41.27 44.39 44.90 45.93 47.79 46.19 47.96 50.32 47.40 45.54 43.16 46.31 44.64 44.22 49.35 47.51 44.90 44.78 42.26 42.74 42.11 43.43 49.63 53.30
54.16 54.47 54.77 54.67 54.60 54.37 54.55 54.32 54.20 54.02 53.85 53.48 53.40 53.01 51.83 51.09 43.66 42.98 40.97 43.85 44.71 44.38 31.75 39.46 40.91 44.58 47.05 46.74 43.72 51.82 52.41 49.29 45.81 45.88 43.11 42.74 47.87 48.75 44.96 44.82 45.42 38.75 45.72 46.10 45.41 43.28 39.46
54.62 54.73 54.40 54.16 54.19 54.17 54.20 54.20 54.00 53.85 53.57 53.42 53.38 52.66 51.27 50.76 41.66 40.55 43.06 45.39 45.93 38.37 28.98 45.92 41.63 47.62 45.90 44.44 44.76 47.26 53.31 48.70 44.63 44.62 43.73 42.78 44.30 44.53 45.67 46.53 46.68 44.01 47.35 45.73 45.42 42.50 39.65
54.30 53.76 53.58 53.63 53.52 53.69 53.79 53.67 53.50 53.34 53.16 53.16 53.02 52.29 51.05 45.32 41.78 43.64 44.72 44.51 39.36 34.02 28.56 42.15 45.03 42.32 41.67 42.82 43.59 48.09 48.82 49.94 49.11 45.20 44.02 44.53 46.84 47.35 45.28 47.27 47.96 48.43 44.59 41.81 40.51 39.46 35.83
53.51 53.33 52.99 52.99 52.85 53.55 53.30 53.24 53.15 53.10 52.93 52.44 51.76 50.62 48.83 47.69 39.69 44.04 44.27 38.95 31.21 28.13 41.07 40.04 39.18 42.01 40.82 40.25 41.65 44.63 44.29 45.14 42.95 38.12 38.84 42.29 44.33 45.67 46.94 43.53 44.78 45.49 39.10 32.31 31.76 32.42 35.82
52.94 52.97 52.94 53.30 53.48 53.42 53.24 53.28 52.93 52.81 52.54 51.57 50.16 48.99 45.85 45.97 44.93 43.32 39.76 34.08 24.54 36.07 35.36 41.70 41.34 41.76 39.31 40.54 39.60 41.81 42.41 43.41 44.78 42.43 40.78 37.48 36.42 44.17 46.16 43.87 41.83 41.91 39.97 32.26 27.87 28.52 37.27
52.75 53.09 53.41 53.28 53.28 53.20 53.26 53.07 52.95 52.65 52.03 51.10 49.38 41.76 40.68 42.45 45.64 42.22 35.42 25.82 27.17 32.73 39.10 38.50 39.01 37.22 36.13 40.08 40.13 39.71 38.00 42.14 46.01 42.92 39.61 37.12 38.68 46.34 46.97 47.31 46.53 39.80 39.04 41.56 33.97 32.85 32.08
52.76 52.82 53.06 53.42 53.38 53.22 53.32 53.11 52.95 52.64 51.99 50.65 42.89 40.04 38.39 44.38 42.90 39.75 32.91 28.95 31.34 39.08 40.31 38.92 32.93 36.96 32.78 35.79 36.70 36.04 37.27 41.39 42.03 45.41 43.37 40.69 36.78 44.07 46.64 47.35 47.06 42.75 44.35 37.28 33.06 30.25 28.58
52.61 52.85 53.07 53.53 53.50 53.34 53.48 53.42 53.01 52.59 51.59 49.95 37.44 33.87 39.69 43.67 40.81 35.30 25.57 28.98 35.33 40.42 41.31 36.52 34.89 34.32 34.31 35.01 35.80 35.43 36.58 41.28 43.72 43.11 44.29 38.87 38.22 39.91 43.79 42.90 43.73 40.27 38.25 36.48 39.43 33.87 32.30
52.89 53.57 53.71 53.69 53.40 53.61 53.94 53.67 52.85 51.76 50.44 43.54 34.05 28.97 39.90 41.26 30.88 30.00 31.66 33.51 40.02 39.26 40.74 38.93 38.81 37.53 35.79 37.08 34.98 35.28 36.35 39.13 44.15 42.58 39.65 41.68 33.36 36.27 39.68 44.15 48.30 47.62 44.02 37.41 37.82 32.76 33.46
52.95 53.34 53.22 53.40 53.38 53.69 53.85 53.38 52.65 51.14 50.38 39.73 32.82 34.26 40.37 39.66 26.05 27.42 31.94 35.83 37.93 38.81 37.28 37.34 37.03 38.50 38.56 35.58 32.10 38.07 39.77 43.55 43.82 42.28 40.61 41.71 34.24 31.01 35.04 41.14 42.38 41.28 43.22 39.99 38.03 35.19 39.43
52.52 52.62 52.94 53.10 53.34 53.61 53.73 52.99 52.04 51.14 50.42 39.91 33.78 28.20 32.56 35.02 32.90 29.71 29.58 31.22 33.10 39.34 39.42 39.69 38.62 40.13 37.27 35.17 37.00 34.79 36.86 42.72 42.80 43.63 47.56 42.04 33.55 32.20 31.90 35.04 38.72 37.64 43.15 42.93 42.41 37.94 39.78
52.52 52.66 52.31 52.93 53.26 53.53 53.46 52.84 52.25 51.05 50.26 40.38 33.57 30.28 32.65 27.57 30.86 32.57 30.68 32.01 32.52 32.41 37.57 40.24 37.21 35.48 34.15 29.58 32.34 33.22 37.27 37.20 40.34 43.22 39.49 36.72 31.84 34.01 36.39 39.68 41.06 40.97 41.61 42.85 42.27 43.05 39.58
52.33 52.39 52.10 52.33 53.06 53.12 53.22 52.95 52.35 51.18 49.27 39.96 35.08 36.46 37.72 34.40 35.60 34.14 32.38 28.60 32.47 32.67 33.69 33.62 34.56 35.79 35.15 30.67 32.21 30.81 33.65 32.32 33.40 36.91 34.09 34.14 31.91 33.74 34.65 40.88 41.54 40.08 42.48 43.42 43.44 43.58 43.93
52.33 52.14 51.97 52.08 52.29 52.29 52.81 52.93 52.41 51.44 47.16 42.50 43.62 43.66 38.83 34.12 34.00 32.81 30.88 30.70 32.55 33.70 35.70 38.39 36.62 34.37 32.97 34.53 37.04 37.13 37.28 36.93 36.81 33.25 32.54 31.45 31.60 32.32 30.22 37.87 38.07 36.14 41.65 43.47 43.48 44.30 44.68
52.01 52.03 51.99 52.00 52.02 51.86 51.94 52.40 52.45 51.69 48.00 43.89 41.44 42.97 37.05 31.15 33.15 32.72 34.03 34.63 33.71 33.17 32.19 35.55 36.62 33.17 37.86 40.31 39.36 36.72 34.71 35.92 36.97 36.36 36.36 31.03 31.39 32.40 30.60 33.53 29.23 39.47 45.62 47.00 45.47 46.04 45.83
52.14 52.01 52.03 52.04 51.96 51.98 51.86 51.94 52.24 52.20 50.96 42.60 41.03 42.09 38.84 32.40 34.41 34.72 34.28 34.95 34.34 33.36 32.26 33.41 36.08 36.93 39.17 36.93 31.66 28.85 28.48 29.24 33.23 35.75 35.52 36.80 31.96 29.66 30.22 29.89 36.93 41.27 47.39 48.08 44.96 43.76 48.06
52.57 52.66 52.28 52.20 52.12 52.00 52.13 52.13 52.20 52.33 51.53 43.65 41.44 42.26 40.77 35.46 33.59 37.17 34.99 35.09 31.32 31.33 32.11 33.54 37.50 38.46 36.72 33.05 31.37 24.76 23.97 28.32 29.31 33.66 36.23 36.44 36.28 32.74 30.67 29.74 29.10 39.78 49.64 53.46 52.02 40.78 49.52
52.14 52.60 52.62 52.28 52.33 52.27 52.30 52.51 52.70 52.30 51.89 46.51 44.20 43.54 42.68 36.43 37.33 37.13 33.65 32.68 36.18 34.61 32.69 34.24 33.03 33.90 35.44 32.73 30.07 24.08 25.03 32.11 27.60 28.44 28.66 29.10 31.56 28.81 30.88 31.63 36.02 45.59 51.41 53.11 40.66 42.70 51.06
52.42 52.54 52.48 52.58 52.35 52.31 52.27 52.17 52.48 52.55 52.06 48.28 44.91 44.23 43.04 38.24 37.00 37.78 38.54 36.79 35.85 35.85 31.35 34.23 31.20 33.96 35.74 32.48 30.59 30.47 30.06 33.83 32.55 32.21 31.85 30.66 29.84 28.39 30.02 31.25 30.46 50.26 50.75 46.32 47.67 52.01 53.63
52.21 52.31 52.19 52.35 52.51 52.87 52.85 52.56 52.43 52.54 52.40 51.44 44.16 46.01 45.86 41.41 39.80 42.32 41.95 42.55 40.96 39.89 37.40 36.89 35.13 32.31 32.82 32.38 32.68 31.70 29.31 33.24 32.26 29.53 37.16 32.54 36.92 35.48 34.62 34.93 44.52 50.81 50.28 52.51 52.59 53.42 54.00

GFSGBSN_sfc_wetblb_048.txt.gz
Wetbulb
57.54 57.42 57.23 56.56 56.33 56.04 55.39 55.33 55.29 55.05 55.41 55.49 55.55 55.33 55.40 55.60 55.43 55.73 56.25 56.33 56.15 55.59 55.80 56.25 56.42 56.52 57.22 53.72 51.61 65.27 69.24 68.43 71.58 67.17 65.63 66.07 64.68 63.31 60.75 63.35 64.36 63.56 64.74 65.81 66.52 66.14 65.62
57.38 56.82 56.30 55.81 55.20 55.23 55.24 55.14 55.16 54.94 55.02 54.79 54.84 55.44 55.61 55.67 55.60 55.93 55.84 55.30 55.39 55.07 55.96 56.34 56.24 56.20 54.94 48.56 55.64 55.64 62.89 64.57 67.31 66.85 65.20 66.83 64.92 64.71 63.01 63.52 63.19 64.12 64.72 65.28 65.71 64.77 65.29
56.74 55.98 55.42 54.99 55.16 55.17 55.02 54.79 54.83 54.74 54.61 54.60 55.32 55.43 55.35 55.47 55.44 55.53 55.17 54.83 54.45 56.39 58.54 56.85 56.69 56.82 53.93 53.58 56.11 56.91 62.83 64.18 67.82 66.95 63.69 66.49 66.92 64.50 63.21 62.05 64.50 64.22 61.36 63.39 62.76 63.65 64.60
56.21 55.15 54.91 54.86 54.88 54.85 54.65 54.67 54.73 54.70 54.65 54.86 54.96 55.36 55.46 55.30 55.19 54.71 54.21 54.16 55.61 59.92 57.79 56.99 57.60 56.91 53.36 57.93 59.00 58.72 62.59 64.25 67.76 67.15 64.53 65.04 66.57 65.33 61.77 60.10 57.74 57.75 58.47 56.21 61.78 63.01 64.26
55.25 55.06 54.93 54.89 54.73 54.57 54.45 54.53 54.45 54.84 55.20 54.99 55.01 55.09 54.99 54.91 54.48 53.88 53.05 54.07 58.74 59.14 58.43 58.31 57.17 56.18 53.20 57.91 52.74 57.12 63.08 63.52 65.89 65.26 64.65 65.01 64.96 62.41 63.34 57.91 55.01 55.49 54.44 56.00 59.01 63.42 63.07
54.81 54.71 54.66 54.51 54.35 54.21 54.56 54.71 54.69 54.81 54.68 54.58 54.39 54.19 54.12 53.98 53.63 52.82 52.68 53.98 59.16 59.05 59.51 60.24 58.34 52.33 55.25 53.55 56.10 54.41 63.30 62.83 64.28 64.06 61.02 61.96 61.57 57.62 58.81 56.97 50.23 52.86 53.28 56.81 57.79 60.46 61.58
54.95 54.55 54.42 54.33 54.19 53.90 54.01 54.21 54.16 54.10 54.05 54.15 54.29 53.83 53.63 53.24 52.91 52.07 52.79 54.95 53.71 54.16 51.91 54.64 56.84 54.47 55.49 57.35 58.64 53.13 60.69 60.98 63.71 59.99 53.65 57.49 54.14 50.93 52.72 54.85 54.81 55.71 54.69 54.70 57.96 60.86 59.22
54.51 54.29 54.14 53.94 53.75 53.58 53.71 53.97 54.07 53.70 53.56 53.74 53.92 53.57 53.17 52.82 52.21 52.04 54.90 49.97 46.77 47.08 43.30 50.75 51.06 52.12 58.55 57.92 55.01 53.44 59.50 56.77 57.90 53.34 54.16 52.43 50.49 53.83 54.76 53.40 53.06 53.61 52.70 53.87 57.73 58.32 57.12
53.91 53.74 53.69 53.59 53.34 53.59 53.78 53.98 54.10 53.98 54.02 53.85 53.55 53.07 52.66 52.21 51.66 52.92 51.48 49.05 53.09 52.12 44.68 49.24 51.92 51.21 51.77 54.22 53.72 53.99 56.62 55.54 54.99 53.18 52.63 50.46 51.49 53.76 52.77 53.09 51.80 52.60 52.43 53.10 54.43 57.01 57.40
52.97 53.65 53.69 53.82 53.71 53.60 53.76 53.88 54.02 53.89 53.75 53.52 53.40 53.05 51.92 50.74 51.74 51.91 49.79 52.97 53.82 52.42 43.02 46.66 47.51 50.82 52.00 54.54 51.50 57.87 54.69 55.08 53.28 52.18 52.62 51.90 53.42 52.02 51.65 50.86 52.19 49.90 53.76 53.44 52.90 52.99 51.38
52.69 52.88 53.50 54.00 53.97 53.90 54.06 53.91 54.00 53.89 53.57 53.56 53.42 52.49 51.36 50.41 51.06 49.29 50.63 53.45 53.37 51.12 36.21 48.69 48.44 54.33 52.94 51.94 54.32 53.67 57.54 54.77 50.93 50.79 52.68 50.45 51.27 50.63 50.20 50.62 52.58 50.73 54.09 52.67 52.51 51.81 52.18
53.20 53.08 53.21 53.62 53.63 54.13 54.08 53.91 54.00 53.95 53.67 53.36 52.76 51.71 50.66 51.62 52.89 51.86 53.45 53.42 51.84 41.09 35.68 46.54 48.09 47.54 47.93 50.48 51.43 53.99 54.37 53.91 53.32 51.39 52.27 51.52 54.10 52.85 52.41 52.96 52.78 53.04 52.08 52.15 52.13 51.17 46.73
53.15 53.41 53.84 53.63 53.70 54.10 53.98 53.93 54.10 53.79 53.51 52.79 51.43 50.33 51.38 52.25 48.49 53.45 53.21 50.56 39.80 36.31 46.14 44.38 45.72 48.06 48.39 48.44 49.53 50.54 50.56 50.11 49.39 46.22 46.69 49.93 50.65 53.16 53.72 51.44 53.35 51.88 50.00 45.15 43.85 44.44 44.87
53.06 54.02 54.01 54.08 53.92 53.87 54.04 54.12 53.81 53.40 53.08 51.91 49.90 48.88 50.62 52.14 53.56 53.13 50.96 43.65 33.51 40.35 41.94 45.98 45.14 46.37 45.69 48.02 48.46 48.93 49.17 48.49 51.66 50.90 49.49 46.62 44.83 50.61 53.58 52.23 51.03 50.36 50.09 45.57 42.11 43.78 46.25
53.14 53.81 53.97 54.18 53.94 53.85 53.98 53.91 53.50 53.05 52.28 51.11 49.16 52.21 51.57 51.98 53.32 52.86 46.10 35.99 36.44 40.52 42.64 42.28 44.15 43.67 46.15 46.34 46.50 47.52 48.18 49.04 51.14 52.95 48.73 48.26 48.28 52.61 53.34 53.87 53.85 50.75 48.57 51.66 48.17 49.15 46.48
53.20 53.42 53.64 53.80 53.79 53.96 54.02 53.87 53.24 52.89 51.89 50.54 49.90 49.51 49.27 52.77 53.29 50.75 42.21 35.48 39.38 42.69 43.10 43.68 39.46 42.51 41.25 43.96 44.82 46.39 47.66 48.52 50.31 53.28 54.43 52.17 48.42 52.44 52.24 53.84 53.85 52.82 53.57 46.86 47.87 43.14 42.40
52.74 53.07 53.45 53.79 53.69 53.75 54.08 53.73 53.26 52.46 51.37 50.33 49.56 45.66 49.70 52.55 52.15 45.69 37.72 37.39 39.48 43.27 43.58 40.70 40.77 40.68 42.55 42.30 44.25 45.18 46.03 46.53 48.90 50.27 51.71 52.45 51.05 51.08 52.13 50.03 49.77 50.15 49.57 50.36 49.85 48.08 44.87
52.25 53.61 53.96 53.79 53.53 53.79 54.06 53.63 52.89 51.65 49.93 49.72 47.69 41.04 50.31 51.85 43.14 42.84 38.34 39.01 39.88 41.60 44.17 42.77 43.20 41.25 40.70 43.13 43.30 44.00 44.13 46.31 48.02 49.89 48.77 52.80 51.25 49.00 49.38 52.97 53.71 52.61 51.00 51.22 46.61 46.61 47.97
52.98 53.47 53.57 53.53 53.30 53.51 53.80 53.40 52.56 51.37 50.32 49.55 44.03 44.37 51.00 49.44 36.84 37.32 40.36 39.55 40.65 39.53 39.56 40.20 39.58 43.10 43.17 42.54 40.34 43.54 44.80 47.09 47.31 48.50 48.34 51.25 48.76 46.51 48.94 51.17 52.46 50.52 51.63 51.68 51.43 51.02 49.12
52.85 52.92 52.88 53.32 53.36 53.26 53.32 52.99 52.34 51.34 50.49 49.56 44.60 39.71 45.88 47.02 45.90 38.91 35.92 37.57 37.29 41.25 39.63 40.25 37.97 40.87 40.23 41.50 44.59 41.38 42.86 45.32 46.32 46.78 48.19 49.22 49.95 49.09 46.81 49.26 51.45 49.20 50.42 51.04 50.57 48.62 48.80
52.89 52.93 52.87 52.98 53.32 53.26 53.24 52.97 52.52 51.43 50.26 49.28 46.54 41.18 41.58 37.32 38.53 37.69 36.52 36.95 35.49 34.63 40.20 41.05 37.29 36.64 35.31 36.73 39.62 40.36 42.85 44.16 45.61 46.61 47.39 47.85 46.36 47.66 50.41 48.13 48.08 50.39 50.19 50.58 50.22 51.09 48.79
52.91 53.03 52.95 53.06 53.22 53.45 53.41 53.05 52.82 51.77 50.00 47.69 41.64 39.99 41.66 39.98 38.34 36.79 37.48 35.41 35.72 36.54 36.47 36.65 35.62 35.81 37.27 34.45 35.94 35.57 38.65 42.51 41.96 45.41 45.00 46.73 44.53 45.87 45.48 47.62 47.33 46.39 49.13 50.08 50.85 51.55 51.81
52.64 53.01 53.01 53.04 53.22 53.63 53.61 53.42 53.01 52.02 49.41 45.28 47.56 47.05 43.52 38.21 38.76 34.94 35.71 35.76 36.60 38.76 39.76 39.27 39.03 37.48 36.13 36.85 41.11 43.06 44.21 44.34 44.34 42.86 42.82 42.71 43.45 42.89 42.76 47.55 46.99 44.13 48.41 49.71 50.71 52.36 52.33
53.30 53.51 53.08 52.87 52.96 53.49 53.51 53.51 53.43 52.30 50.64 48.13 47.84 45.43 39.17 34.59 36.45 35.68 36.58 37.80 36.89 37.78 36.93 40.33 41.16 37.88 41.96 45.75 45.39 45.19 44.81 44.47 43.75 43.78 44.99 41.97 42.36 42.95 42.18 45.21 37.38 48.98 54.05 52.94 51.29 52.41 53.61
53.01 53.22 53.14 52.54 52.89 53.22 53.39 53.19 53.29 52.87 51.66 48.57 48.40 44.00 39.85 35.28 37.28 37.10 38.39 37.16 39.04 38.96 37.44 39.43 41.00 43.77 45.87 43.13 39.16 37.59 38.60 39.36 41.03 42.51 43.04 44.41 42.60 40.73 38.96 40.53 45.38 48.18 49.48 49.43 50.12 51.30 54.95
52.70 52.86 53.13 52.85 53.16 53.63 53.35 53.00 53.48 53.06 52.39 49.63 48.03 48.10 43.02 36.29 36.20 39.07 37.09 38.53 35.81 36.29 38.26 40.07 43.45 46.40 44.68 40.84 37.74 32.12 33.11 35.96 36.36 40.26 44.60 43.74 43.52 40.98 40.89 37.41 37.35 47.27 51.71 53.58 53.97 47.12 55.58
52.74 52.90 53.01 52.90 52.95 53.18 52.97 53.23 53.11 53.23 53.08 50.70 47.99 48.78 43.76 36.35 39.76 40.23 37.44 37.36 38.88 37.30 35.86 38.93 39.50 40.37 44.06 38.34 34.67 33.28 33.28 38.35 34.33 35.33 38.49 38.72 39.25 36.62 38.08 37.68 42.76 49.49 52.69 56.58 45.96 51.34 59.21
52.31 52.58 52.80 52.85 52.84 52.84 52.78 52.56 52.97 53.37 53.73 52.13 49.04 48.78 44.33 38.65 40.25 41.75 43.05 39.09 40.08 39.20 35.23 38.71 39.27 41.25 40.57 35.27 35.88 37.57 35.35 39.22 37.02 39.97 39.15 39.11 36.61 36.63 37.81 36.59 34.95 49.08 49.33 48.81 54.09 57.65 58.92
52.18 52.39 52.50 52.52 52.72 52.60 52.49 52.61 53.07 53.17 53.43 53.25 48.57 48.66 48.40 41.67 40.90 45.16 45.33 46.34 45.29 43.84 39.69 39.60 39.05 39.65 43.23 39.04 40.25 36.48 36.17 38.48 37.42 33.73 43.29 36.81 41.39 40.45 40.71 40.41 48.20 50.30 50.65 53.08 54.29 54.13 56.06